Time,TemperatureF,DewpointF,PressureIn,WindDirection,WindDirectionDegrees,WindSpeedMPH,WindSpeedGustMPH,Humidity,HourlyPrecipIn,Conditions,Clouds,dailyrainin,SoftwareType,DateUTC
2014-02-01 00:00:00,17.4,9.9,29.90,NE,45,13.0,13.6,72,0.00,,,0.00,meteobridge,2014-02-01 06:00:00,
2014-02-01 00:01:00,17.4,9.9,29.90,NE,45,13.0,13.0,72,0.00,,,0.00,meteobridge,2014-02-01 06:01:00,
2014-02-01 00:03:00,17.4,9.9,29.90,NE,45,13.0,13.6,72,0.00,,,0.00,meteobridge,2014-02-01 06:03:00,
2014-02-01 00:05:00,17.4,9.9,29.90,NE,45,13.6,13.6,72,0.00,,,0.00,meteobridge,2014-02-01 06:05:00,
2014-02-01 00:07:00,17.4,9.9,29.90,NE,45,13.0,13.6,72,0.00,,,0.00,meteobridge,2014-02-01 06:07:00,
2014-02-01 00:08:00,17.4,9.9,29.91,NE,45,12.1,13.0,72,0.00,,,0.00,meteobridge,2014-02-01 06:08:00,
2014-02-01 00:10:00,17.4,9.9,29.90,NE,45,12.1,13.0,72,0.00,,,0.00,meteobridge,2014-02-01 06:10:00,
2014-02-01 00:11:00,17.4,9.9,29.90,NE,45,12.1,13.0,72,0.00,,,0.00,meteobridge,2014-02-01 06:11:00,
2014-02-01 00:12:00,17.4,9.9,29.91,NE,45,13.0,13.0,72,0.00,,,0.00,meteobridge,2014-02-01 06:12:00,
2014-02-01 00:13:00,17.4,9.9,29.90,NE,45,13.0,13.0,72,0.00,,,0.00,meteobridge,2014-02-01 06:13:00,
2014-02-01 00:14:00,17.4,9.9,29.91,NE,45,12.1,13.0,72,0.00,,,0.00,meteobridge,2014-02-01 06:14:00,
2014-02-01 00:17:00,17.4,9.9,29.90,NE,45,11.4,13.0,72,0.00,,,0.00,meteobridge,2014-02-01 06:17:00,
2014-02-01 00:18:00,17.4,9.9,29.90,NE,45,11.4,11.4,72,0.00,,,0.00,meteobridge,2014-02-01 06:18:00,
2014-02-01 00:19:00,17.4,9.9,29.90,NE,45,11.4,11.4,72,0.00,,,0.00,meteobridge,2014-02-01 06:19:00,
2014-02-01 00:22:00,17.4,9.9,29.89,NE,45,11.4,11.4,72,0.00,,,0.00,meteobridge,2014-02-01 06:22:00,
2014-02-01 00:23:00,17.4,9.9,29.89,NE,45,11.4,11.4,72,0.00,,,0.00,meteobridge,2014-02-01 06:23:00,
2014-02-01 00:24:00,17.6,9.9,29.90,NE,45,11.4,11.4,71,0.00,,,0.00,meteobridge,2014-02-01 06:24:00,
2014-02-01 00:26:00,17.6,9.9,29.90,NE,45,11.4,12.1,71,0.00,,,0.00,meteobridge,2014-02-01 06:26:00,
2014-02-01 00:27:00,17.6,9.9,29.90,NE,45,10.7,11.4,71,0.00,,,0.00,meteobridge,2014-02-01 06:27:00,
2014-02-01 00:28:00,17.6,9.9,29.89,NE,45,12.1,12.1,71,0.00,,,0.00,meteobridge,2014-02-01 06:28:00,
2014-02-01 00:29:00,17.6,9.9,29.90,NE,45,13.0,13.0,71,0.00,,,0.00,meteobridge,2014-02-01 06:29:00,
2014-02-01 00:30:00,17.6,9.9,29.90,NE,45,11.4,13.0,71,0.00,,,0.00,meteobridge,2014-02-01 06:30:00,
2014-02-01 00:32:00,17.6,9.9,29.90,NE,45,9.2,11.4,71,0.00,,,0.00,meteobridge,2014-02-01 06:32:00,
2014-02-01 00:35:00,17.8,10.0,29.89,East,90,8.3,9.2,71,0.00,,,0.00,meteobridge,2014-02-01 06:35:00,
2014-02-01 00:36:00,17.8,10.2,29.89,East,90,9.8,9.8,72,0.00,,,0.00,meteobridge,2014-02-01 06:36:00,
2014-02-01 00:38:00,17.8,10.2,29.89,NE,45,9.8,9.8,72,0.00,,,0.00,meteobridge,2014-02-01 06:38:00,
2014-02-01 00:39:00,17.8,10.2,29.89,NE,45,9.8,9.8,72,0.00,,,0.00,meteobridge,2014-02-01 06:39:00,
2014-02-01 00:40:00,17.8,10.2,29.89,NE,45,8.3,9.8,72,0.00,,,0.00,meteobridge,2014-02-01 06:40:00,
2014-02-01 00:41:00,17.8,10.2,29.89,NE,45,11.4,11.4,72,0.00,,,0.00,meteobridge,2014-02-01 06:41:00,
2014-02-01 00:42:00,17.8,10.2,29.89,NE,45,11.4,11.4,72,0.00,,,0.00,meteobridge,2014-02-01 06:42:00,
2014-02-01 00:43:00,17.8,10.2,29.90,NE,45,9.8,11.4,72,0.00,,,0.00,meteobridge,2014-02-01 06:43:00,
2014-02-01 00:46:00,17.8,10.2,29.89,NE,45,10.7,11.4,72,0.00,,,0.00,meteobridge,2014-02-01 06:46:00,
2014-02-01 00:47:00,17.8,10.2,29.89,NE,45,10.7,11.4,72,0.00,,,0.00,meteobridge,2014-02-01 06:47:00,
2014-02-01 00:48:00,18.0,10.4,29.90,NE,45,9.8,11.4,72,0.00,,,0.00,meteobridge,2014-02-01 06:48:00,
2014-02-01 00:49:00,18.0,10.4,29.90,NE,45,11.4,11.4,72,0.00,,,0.00,meteobridge,2014-02-01 06:49:00,
2014-02-01 00:52:00,18.0,10.4,29.90,NE,45,9.8,9.8,72,0.00,,,0.00,meteobridge,2014-02-01 06:52:00,
2014-02-01 00:53:00,18.0,10.4,29.90,NE,45,9.2,9.8,72,0.00,,,0.00,meteobridge,2014-02-01 06:53:00,
2014-02-01 00:54:00,18.0,10.4,29.90,NE,45,8.3,9.8,72,0.00,,,0.00,meteobridge,2014-02-01 06:54:00,
2014-02-01 00:55:00,18.0,10.4,29.90,NE,45,8.3,9.2,72,0.00,,,0.00,meteobridge,2014-02-01 06:55:00,
2014-02-01 00:58:00,18.1,10.6,29.90,NE,45,8.3,9.2,72,0.00,,,0.00,meteobridge,2014-02-01 06:58:00,
2014-02-01 00:59:00,18.1,10.6,29.90,NE,45,7.6,8.3,72,0.00,,,0.00,meteobridge,2014-02-01 06:59:00,
2014-02-01 01:00:00,18.1,10.6,29.90,NE,45,7.6,8.3,72,0.00,,,0.00,meteobridge,2014-02-01 07:00:00,
2014-02-01 01:01:00,18.1,10.6,29.90,NE,45,7.6,7.6,72,0.00,,,0.00,meteobridge,2014-02-01 07:01:00,
2014-02-01 01:03:00,18.1,10.6,29.90,NE,45,8.3,8.3,72,0.00,,,0.00,meteobridge,2014-02-01 07:03:00,
2014-02-01 01:04:00,18.1,10.6,29.90,NE,45,7.6,8.3,72,0.00,,,0.00,meteobridge,2014-02-01 07:04:00,
2014-02-01 01:05:00,18.1,10.6,29.90,NE,45,8.3,8.3,72,0.00,,,0.00,meteobridge,2014-02-01 07:05:00,
2014-02-01 01:07:00,18.1,10.6,29.90,NE,45,8.3,9.2,72,0.00,,,0.00,meteobridge,2014-02-01 07:07:00,
2014-02-01 01:08:00,18.1,10.6,29.90,NE,45,8.3,9.2,72,0.00,,,0.00,meteobridge,2014-02-01 07:08:00,
2014-02-01 01:10:00,18.1,10.9,29.90,NE,45,8.3,9.2,73,0.00,,,0.00,meteobridge,2014-02-01 07:10:00,
2014-02-01 01:11:00,18.1,10.9,29.90,NE,45,8.3,9.2,73,0.00,,,0.00,meteobridge,2014-02-01 07:11:00,
2014-02-01 01:13:00,18.1,10.9,29.90,NE,45,7.6,8.3,73,0.00,,,0.00,meteobridge,2014-02-01 07:13:00,
2014-02-01 01:16:00,18.1,10.9,29.89,NE,45,9.2,9.2,73,0.00,,,0.00,meteobridge,2014-02-01 07:16:00,
2014-02-01 01:17:00,18.1,10.9,29.89,NE,45,8.3,9.2,73,0.00,,,0.00,meteobridge,2014-02-01 07:17:00,
2014-02-01 01:19:00,18.3,11.1,29.89,East,90,9.2,9.2,73,0.00,,,0.00,meteobridge,2014-02-01 07:19:00,
2014-02-01 01:20:00,18.3,11.1,29.88,NE,45,9.2,9.2,73,0.00,,,0.00,meteobridge,2014-02-01 07:20:00,
2014-02-01 01:21:00,18.3,11.1,29.88,East,90,9.2,9.2,73,0.00,,,0.00,meteobridge,2014-02-01 07:21:00,
2014-02-01 01:22:00,18.3,11.1,29.88,East,90,9.2,9.2,73,0.00,,,0.00,meteobridge,2014-02-01 07:22:00,
2014-02-01 01:24:00,18.5,11.3,29.88,NE,45,9.2,10.7,73,0.00,,,0.00,meteobridge,2014-02-01 07:24:00,
2014-02-01 01:26:00,18.5,11.3,29.88,NE,45,9.8,9.8,73,0.00,,,0.00,meteobridge,2014-02-01 07:26:00,
2014-02-01 01:28:00,18.5,11.3,29.88,NE,45,10.7,10.7,73,0.00,,,0.00,meteobridge,2014-02-01 07:28:00,
2014-02-01 01:30:00,18.5,11.3,29.88,NE,45,8.3,10.7,73,0.00,,,0.00,meteobridge,2014-02-01 07:30:00,
2014-02-01 01:31:00,18.7,11.5,29.87,NNE,23,13.6,13.6,73,0.00,,,0.00,meteobridge,2014-02-01 07:31:00,
2014-02-01 01:32:00,18.7,11.5,29.87,NNE,23,13.6,13.6,73,0.00,,,0.00,meteobridge,2014-02-01 07:32:00,
2014-02-01 01:33:00,18.7,11.5,29.87,NE,45,10.7,13.6,73,0.00,,,0.00,meteobridge,2014-02-01 07:33:00,
2014-02-01 01:35:00,18.7,11.5,29.87,NE,45,12.1,12.1,73,0.00,,,0.00,meteobridge,2014-02-01 07:35:00,
2014-02-01 01:37:00,18.7,11.5,29.87,NE,45,11.4,13.0,73,0.00,,,0.00,meteobridge,2014-02-01 07:37:00,
2014-02-01 01:39:00,18.7,11.5,29.87,NE,45,8.3,10.7,73,0.00,,,0.00,meteobridge,2014-02-01 07:39:00,
2014-02-01 01:40:00,18.7,11.8,29.87,NE,45,8.3,9.8,74,0.00,,,0.00,meteobridge,2014-02-01 07:40:00,
2014-02-01 01:41:00,18.7,11.8,29.86,NE,45,10.7,10.7,74,0.00,,,0.00,meteobridge,2014-02-01 07:41:00,
2014-02-01 01:42:00,18.7,11.8,29.86,East,90,10.7,10.7,74,0.00,,,0.00,meteobridge,2014-02-01 07:42:00,
2014-02-01 01:45:00,18.7,11.8,29.87,NE,45,6.9,9.2,74,0.00,,,0.00,meteobridge,2014-02-01 07:45:00,
2014-02-01 01:46:00,18.7,11.8,29.87,East,90,9.2,9.2,74,0.00,,,0.00,meteobridge,2014-02-01 07:46:00,
2014-02-01 01:47:00,18.7,11.8,29.87,East,90,9.8,9.8,74,0.00,,,0.00,meteobridge,2014-02-01 07:47:00,
2014-02-01 01:49:00,18.7,11.8,29.87,NE,45,9.2,9.8,74,0.00,,,0.00,meteobridge,2014-02-01 07:49:00,
2014-02-01 01:50:00,18.7,11.8,29.86,NE,45,9.8,9.8,74,0.00,,,0.00,meteobridge,2014-02-01 07:50:00,
2014-02-01 01:51:00,18.7,11.8,29.86,East,90,9.8,9.8,74,0.00,,,0.00,meteobridge,2014-02-01 07:51:00,
2014-02-01 01:53:00,18.7,11.8,29.85,NE,45,9.2,9.8,74,0.00,,,0.00,meteobridge,2014-02-01 07:53:00,
2014-02-01 01:54:00,18.7,11.8,29.86,East,90,10.7,10.7,74,0.00,,,0.00,meteobridge,2014-02-01 07:54:00,
2014-02-01 01:56:00,18.7,11.8,29.85,East,90,9.8,11.4,74,0.00,,,0.00,meteobridge,2014-02-01 07:56:00,
2014-02-01 01:57:00,18.7,11.8,29.85,East,90,11.4,11.4,74,0.00,,,0.00,meteobridge,2014-02-01 07:57:00,
2014-02-01 01:59:00,18.7,11.8,29.84,NE,45,13.0,13.0,74,0.00,,,0.00,meteobridge,2014-02-01 07:59:00,
2014-02-01 02:00:00,18.7,11.8,29.84,NE,45,13.0,13.0,74,0.00,,,0.00,meteobridge,2014-02-01 08:00:00,
2014-02-01 02:01:00,18.5,11.7,29.84,NE,45,13.0,13.0,74,0.00,,,0.00,meteobridge,2014-02-01 08:01:00,
2014-02-01 02:02:00,18.5,11.7,29.84,NE,45,13.0,13.0,74,0.00,,,0.00,meteobridge,2014-02-01 08:02:00,
2014-02-01 02:04:00,18.5,11.7,29.84,NE,45,13.0,13.0,74,0.00,,,0.00,meteobridge,2014-02-01 08:04:00,
2014-02-01 02:05:00,18.5,11.7,29.84,NE,45,13.0,13.0,74,0.00,,,0.00,meteobridge,2014-02-01 08:05:00,
2014-02-01 02:06:00,18.5,11.7,29.83,NE,45,13.0,13.0,74,0.00,,,0.00,meteobridge,2014-02-01 08:06:00,
2014-02-01 02:07:00,18.7,11.8,29.84,NE,45,12.1,13.0,74,0.00,,,0.00,meteobridge,2014-02-01 08:07:00,
2014-02-01 02:08:00,18.7,11.8,29.84,East,90,11.4,13.0,74,0.00,,,0.00,meteobridge,2014-02-01 08:08:00,
2014-02-01 02:09:00,18.7,11.8,29.84,East,90,11.4,12.1,74,0.00,,,0.00,meteobridge,2014-02-01 08:09:00,
2014-02-01 02:11:00,18.7,11.8,29.83,NE,45,10.7,11.4,74,0.00,,,0.00,meteobridge,2014-02-01 08:11:00,
2014-02-01 02:13:00,18.7,11.8,29.83,NE,45,13.0,13.0,74,0.00,,,0.00,meteobridge,2014-02-01 08:13:00,
2014-02-01 02:14:00,18.7,11.8,29.83,NE,45,12.1,13.0,74,0.00,,,0.00,meteobridge,2014-02-01 08:14:00,
2014-02-01 02:15:00,18.7,11.8,29.83,NE,45,11.4,12.1,74,0.00,,,0.00,meteobridge,2014-02-01 08:15:00,
2014-02-01 02:17:00,18.7,11.8,29.83,NE,45,12.1,13.6,74,0.00,,,0.00,meteobridge,2014-02-01 08:17:00,
2014-02-01 02:18:00,18.7,11.8,29.83,NE,45,13.0,13.0,74,0.00,,,0.00,meteobridge,2014-02-01 08:18:00,
2014-02-01 02:20:00,18.9,12.0,29.83,NE,45,12.1,13.6,74,0.00,,,0.00,meteobridge,2014-02-01 08:20:00,
2014-02-01 02:23:00,18.9,12.0,29.82,NE,45,12.1,13.0,74,0.00,,,0.00,meteobridge,2014-02-01 08:23:00,
2014-02-01 02:24:00,18.9,12.0,29.82,NE,45,11.4,12.1,74,0.00,,,0.00,meteobridge,2014-02-01 08:24:00,
2014-02-01 02:27:00,18.9,12.0,29.82,NE,45,14.5,14.5,74,0.00,,,0.00,meteobridge,2014-02-01 08:27:00,
2014-02-01 02:28:00,18.9,12.0,29.82,NE,45,14.5,15.2,74,0.00,,,0.00,meteobridge,2014-02-01 08:28:00,
2014-02-01 02:29:00,18.9,12.0,29.82,NE,45,14.5,15.2,74,0.00,,,0.00,meteobridge,2014-02-01 08:29:00,
2014-02-01 02:30:00,18.9,12.0,29.82,NE,45,13.6,14.5,74,0.00,,,0.00,meteobridge,2014-02-01 08:30:00,
2014-02-01 02:32:00,18.9,12.0,29.82,NE,45,14.5,14.5,74,0.00,,,0.00,meteobridge,2014-02-01 08:32:00,
2014-02-01 02:35:00,18.9,12.0,29.82,NE,45,14.5,14.5,74,0.00,,,0.00,meteobridge,2014-02-01 08:35:00,
2014-02-01 02:36:00,18.9,12.0,29.82,NE,45,13.6,14.5,74,0.00,,,0.00,meteobridge,2014-02-01 08:36:00,
2014-02-01 02:37:00,18.9,12.0,29.82,East,90,12.1,14.5,74,0.00,,,0.00,meteobridge,2014-02-01 08:37:00,
2014-02-01 02:41:00,18.9,12.0,29.82,NE,45,13.0,13.0,74,0.00,,,0.00,meteobridge,2014-02-01 08:41:00,
2014-02-01 02:43:00,18.9,12.0,29.82,NE,45,11.4,13.0,74,0.00,,,0.00,meteobridge,2014-02-01 08:43:00,
2014-02-01 02:44:00,18.9,12.0,29.82,NE,45,11.4,13.0,74,0.00,,,0.00,meteobridge,2014-02-01 08:44:00,
2014-02-01 02:45:00,18.9,12.0,29.82,NE,45,11.4,11.4,74,0.00,,,0.00,meteobridge,2014-02-01 08:45:00,
2014-02-01 02:47:00,18.9,12.0,29.82,NE,45,9.8,12.1,74,0.00,,,0.00,meteobridge,2014-02-01 08:47:00,
2014-02-01 02:48:00,18.9,12.0,29.82,NE,45,12.1,12.1,74,0.00,,,0.00,meteobridge,2014-02-01 08:48:00,
2014-02-01 02:49:00,18.9,12.0,29.82,NE,45,12.1,12.1,74,0.00,,,0.00,meteobridge,2014-02-01 08:49:00,
2014-02-01 02:51:00,18.9,12.0,29.82,NE,45,9.8,12.1,74,0.00,,,0.00,meteobridge,2014-02-01 08:51:00,
2014-02-01 02:53:00,18.9,12.0,29.83,NE,45,10.7,12.1,74,0.00,,,0.00,meteobridge,2014-02-01 08:53:00,
2014-02-01 02:54:00,18.9,12.0,29.83,NE,45,10.7,12.1,74,0.00,,,0.00,meteobridge,2014-02-01 08:54:00,
2014-02-01 02:55:00,18.9,12.0,29.83,NE,45,11.4,12.1,74,0.00,,,0.00,meteobridge,2014-02-01 08:55:00,
2014-02-01 02:56:00,19.0,12.2,29.83,NE,45,11.4,11.4,74,0.00,,,0.00,meteobridge,2014-02-01 08:56:00,
2014-02-01 02:58:00,19.0,12.2,29.84,NE,45,9.8,11.4,74,0.00,,,0.00,meteobridge,2014-02-01 08:58:00,
2014-02-01 02:59:00,19.0,12.2,29.84,NE,45,8.3,10.7,74,0.00,,,0.00,meteobridge,2014-02-01 08:59:00,
2014-02-01 03:00:00,19.0,12.2,29.84,NE,45,8.3,9.2,74,0.00,,,0.00,meteobridge,2014-02-01 09:00:00,
2014-02-01 03:01:00,19.0,12.2,29.84,NE,45,8.3,9.2,74,0.00,,,0.00,meteobridge,2014-02-01 09:01:00,
2014-02-01 03:03:00,19.0,12.2,29.85,NE,45,7.6,8.3,74,0.00,,,0.00,meteobridge,2014-02-01 09:03:00,
2014-02-01 03:04:00,19.0,12.2,29.85,NE,45,8.3,8.3,74,0.00,,,0.00,meteobridge,2014-02-01 09:04:00,
2014-02-01 03:06:00,19.0,12.2,29.85,NE,45,6.9,8.3,74,0.00,,,0.00,meteobridge,2014-02-01 09:06:00,
2014-02-01 03:07:00,19.0,12.2,29.85,NE,45,7.6,7.6,74,0.00,,,0.00,meteobridge,2014-02-01 09:07:00,
2014-02-01 03:08:00,19.0,12.2,29.85,NE,45,6.9,7.6,74,0.00,,,0.00,meteobridge,2014-02-01 09:08:00,
2014-02-01 03:10:00,19.0,12.2,29.85,NE,45,8.3,8.3,74,0.00,,,0.00,meteobridge,2014-02-01 09:10:00,
2014-02-01 03:12:00,19.0,12.2,29.85,NE,45,8.3,8.3,74,0.00,,,0.00,meteobridge,2014-02-01 09:12:00,
2014-02-01 03:14:00,19.2,12.4,29.85,NE,45,7.6,8.3,74,0.00,,,0.00,meteobridge,2014-02-01 09:14:00,
2014-02-01 03:15:00,19.2,12.4,29.85,NE,45,7.6,7.6,74,0.00,,,0.00,meteobridge,2014-02-01 09:15:00,
2014-02-01 03:16:00,19.2,12.4,29.85,NE,45,6.9,7.6,74,0.00,,,0.00,meteobridge,2014-02-01 09:16:00,
2014-02-01 03:17:00,19.2,12.4,29.85,NE,45,7.6,7.6,74,0.00,,,0.00,meteobridge,2014-02-01 09:17:00,
2014-02-01 03:19:00,19.2,12.4,29.85,NE,45,6.9,7.6,74,0.00,,,0.00,meteobridge,2014-02-01 09:19:00,
2014-02-01 03:20:00,19.2,12.4,29.85,NE,45,6.9,6.9,74,0.00,,,0.00,meteobridge,2014-02-01 09:20:00,
2014-02-01 03:22:00,19.2,12.4,29.85,NE,45,6.9,6.9,74,0.00,,,0.00,meteobridge,2014-02-01 09:22:00,
2014-02-01 03:23:00,19.2,12.4,29.85,NE,45,6.9,6.9,74,0.00,,,0.00,meteobridge,2014-02-01 09:23:00,
2014-02-01 03:24:00,19.2,12.4,29.85,NE,45,6.0,6.9,74,0.00,,,0.00,meteobridge,2014-02-01 09:24:00,
2014-02-01 03:25:00,19.2,12.4,29.85,NE,45,6.9,6.9,74,0.00,,,0.00,meteobridge,2014-02-01 09:25:00,
2014-02-01 03:27:00,19.2,12.4,29.85,NE,45,6.9,6.9,74,0.00,,,0.00,meteobridge,2014-02-01 09:27:00,
2014-02-01 03:29:00,19.2,12.4,29.84,NE,45,6.9,6.9,74,0.00,,,0.00,meteobridge,2014-02-01 09:29:00,
2014-02-01 03:30:00,19.2,12.4,29.85,NE,45,6.0,6.9,74,0.00,,,0.00,meteobridge,2014-02-01 09:30:00,
2014-02-01 03:31:00,19.2,12.4,29.85,NE,45,6.0,6.9,74,0.00,,,0.00,meteobridge,2014-02-01 09:31:00,
2014-02-01 03:32:00,19.2,12.4,29.85,NE,45,6.9,7.6,74,0.00,,,0.00,meteobridge,2014-02-01 09:32:00,
2014-02-01 03:34:00,19.2,12.4,29.85,NE,45,8.3,8.3,74,0.00,,,0.00,meteobridge,2014-02-01 09:34:00,
2014-02-01 03:35:00,19.2,12.4,29.84,NE,45,6.9,8.3,74,0.00,,,0.00,meteobridge,2014-02-01 09:35:00,
2014-02-01 03:36:00,19.0,12.2,29.84,NE,45,7.6,7.6,74,0.00,,,0.00,meteobridge,2014-02-01 09:36:00,
2014-02-01 03:38:00,19.0,12.2,29.84,NE,45,8.3,8.3,74,0.00,,,0.00,meteobridge,2014-02-01 09:38:00,
2014-02-01 03:41:00,19.0,12.2,29.83,NE,45,9.2,9.8,74,0.00,,,0.00,meteobridge,2014-02-01 09:41:00,
2014-02-01 03:42:00,19.0,12.2,29.83,NE,45,9.2,9.8,74,0.00,,,0.00,meteobridge,2014-02-01 09:42:00,
2014-02-01 03:44:00,19.0,12.2,29.83,NE,45,9.2,9.8,74,0.00,,,0.00,meteobridge,2014-02-01 09:44:00,
2014-02-01 03:45:00,19.0,12.2,29.83,NE,45,9.2,9.2,74,0.00,,,0.00,meteobridge,2014-02-01 09:45:00,
2014-02-01 03:47:00,19.0,12.2,29.83,NE,45,9.8,9.8,74,0.00,,,0.00,meteobridge,2014-02-01 09:47:00,
2014-02-01 03:48:00,19.0,12.2,29.83,NE,45,9.8,10.7,74,0.00,,,0.00,meteobridge,2014-02-01 09:48:00,
2014-02-01 03:49:00,19.0,12.2,29.83,NE,45,10.7,10.7,74,0.00,,,0.00,meteobridge,2014-02-01 09:49:00,
2014-02-01 03:50:00,19.0,12.2,29.83,NE,45,10.7,10.7,74,0.00,,,0.00,meteobridge,2014-02-01 09:50:00,
2014-02-01 03:51:00,19.0,12.2,29.83,NE,45,10.7,10.7,74,0.00,,,0.00,meteobridge,2014-02-01 09:51:00,
2014-02-01 03:53:00,19.0,12.2,29.82,NE,45,10.7,10.7,74,0.00,,,0.00,meteobridge,2014-02-01 09:53:00,
2014-02-01 03:54:00,19.0,12.2,29.83,NE,45,12.1,12.1,74,0.00,,,0.00,meteobridge,2014-02-01 09:54:00,
2014-02-01 03:58:00,19.0,12.2,29.82,NE,45,11.4,12.1,74,0.00,,,0.00,meteobridge,2014-02-01 09:58:00,
2014-02-01 03:59:00,19.0,12.2,29.82,NE,45,12.1,12.1,74,0.00,,,0.00,meteobridge,2014-02-01 09:59:00,
2014-02-01 04:00:00,19.0,12.2,29.81,NE,45,13.0,13.0,74,0.00,,,0.00,meteobridge,2014-02-01 10:00:00,
2014-02-01 04:01:00,19.0,12.2,29.81,NE,45,13.0,13.0,74,0.00,,,0.00,meteobridge,2014-02-01 10:01:00,
2014-02-01 04:03:00,19.0,12.2,29.81,NE,45,13.0,13.0,74,0.00,,,0.00,meteobridge,2014-02-01 10:03:00,
2014-02-01 04:04:00,19.0,12.2,29.81,NE,45,13.0,13.0,74,0.00,,,0.00,meteobridge,2014-02-01 10:04:00,
2014-02-01 04:05:00,19.0,12.2,29.80,NE,45,13.0,13.0,74,0.00,,,0.00,meteobridge,2014-02-01 10:05:00,
2014-02-01 04:07:00,19.0,12.2,29.80,NE,45,14.5,14.5,74,0.00,,,0.00,meteobridge,2014-02-01 10:07:00,
2014-02-01 04:09:00,19.0,12.2,29.80,NE,45,14.5,14.5,74,0.00,,,0.00,meteobridge,2014-02-01 10:09:00,
2014-02-01 04:10:00,19.0,12.2,29.80,NE,45,14.5,14.5,74,0.00,,,0.00,meteobridge,2014-02-01 10:10:00,
2014-02-01 04:12:00,19.0,12.2,29.80,NE,45,14.5,14.5,74,0.00,,,0.00,meteobridge,2014-02-01 10:12:00,
2014-02-01 04:14:00,19.0,12.2,29.80,NNE,23,13.0,13.0,74,0.00,,,0.00,meteobridge,2014-02-01 10:14:00,
2014-02-01 04:15:00,19.0,12.2,29.80,North,0,12.1,13.0,74,0.00,,,0.00,meteobridge,2014-02-01 10:15:00,
2014-02-01 04:16:00,19.0,12.2,29.80,North,0,13.6,13.6,74,0.00,,,0.00,meteobridge,2014-02-01 10:16:00,
2014-02-01 04:17:00,18.9,12.0,29.80,NE,45,12.1,13.6,74,0.00,,,0.00,meteobridge,2014-02-01 10:17:00,
2014-02-01 04:18:00,18.9,12.0,29.80,NE,45,13.0,13.6,74,0.00,,,0.00,meteobridge,2014-02-01 10:18:00,
2014-02-01 04:21:00,18.5,11.7,29.80,NE,45,13.6,13.6,74,0.00,,,0.00,meteobridge,2014-02-01 10:21:00,
2014-02-01 04:22:00,18.5,11.7,29.80,NE,45,13.6,13.6,74,0.00,,,0.00,meteobridge,2014-02-01 10:22:00,
2014-02-01 04:24:00,18.3,11.5,29.79,North,0,13.0,13.6,74,0.00,,,0.00,meteobridge,2014-02-01 10:24:00,
2014-02-01 04:27:00,18.3,11.1,29.79,North,0,13.6,13.6,73,0.00,,,0.00,meteobridge,2014-02-01 10:27:00,
2014-02-01 04:28:00,18.3,11.1,29.79,North,0,13.6,13.6,73,0.00,,,0.00,meteobridge,2014-02-01 10:28:00,
2014-02-01 04:29:00,18.1,10.9,29.79,NE,45,13.6,15.2,73,0.00,,,0.00,meteobridge,2014-02-01 10:29:00,
2014-02-01 04:30:00,18.1,10.9,29.79,NE,45,13.6,15.2,73,0.00,,,0.00,meteobridge,2014-02-01 10:30:00,
2014-02-01 04:31:00,18.1,10.9,29.79,North,0,14.5,14.5,73,0.00,,,0.00,meteobridge,2014-02-01 10:31:00,
2014-02-01 04:33:00,18.1,10.9,29.80,North,0,13.0,14.5,73,0.00,,,0.00,meteobridge,2014-02-01 10:33:00,
2014-02-01 04:34:00,18.1,10.9,29.79,NE,45,14.5,14.5,73,0.00,,,0.00,meteobridge,2014-02-01 10:34:00,
2014-02-01 04:35:00,18.1,10.9,29.79,NE,45,14.5,14.5,73,0.00,,,0.00,meteobridge,2014-02-01 10:35:00,
2014-02-01 04:36:00,18.1,10.9,29.80,NE,45,13.6,14.5,73,0.00,,,0.00,meteobridge,2014-02-01 10:36:00,
2014-02-01 04:38:00,18.1,10.9,29.80,NE,45,13.0,13.6,73,0.00,,,0.00,meteobridge,2014-02-01 10:38:00,
2014-02-01 04:40:00,18.1,10.9,29.80,North,0,14.5,14.5,73,0.00,,,0.00,meteobridge,2014-02-01 10:40:00,
2014-02-01 04:41:00,18.1,10.9,29.80,North,0,13.0,14.5,73,0.00,,,0.00,meteobridge,2014-02-01 10:41:00,
2014-02-01 04:42:00,18.1,10.9,29.81,North,0,11.4,13.0,73,0.00,,,0.00,meteobridge,2014-02-01 10:42:00,
2014-02-01 04:45:00,18.1,10.9,29.80,North,0,11.4,12.1,73,0.00,,,0.00,meteobridge,2014-02-01 10:45:00,
2014-02-01 04:46:00,18.1,10.9,29.80,North,0,12.1,13.6,73,0.00,,,0.00,meteobridge,2014-02-01 10:46:00,
2014-02-01 04:47:00,18.1,10.9,29.81,NE,45,12.1,13.6,73,0.00,,,0.00,meteobridge,2014-02-01 10:47:00,
2014-02-01 04:48:00,18.1,10.9,29.81,NE,45,12.1,13.6,73,0.00,,,0.00,meteobridge,2014-02-01 10:48:00,
2014-02-01 04:51:00,18.3,11.1,29.81,North,0,11.4,12.1,73,0.00,,,0.00,meteobridge,2014-02-01 10:51:00,
2014-02-01 04:52:00,18.3,11.1,29.81,North,0,11.4,11.4,73,0.00,,,0.00,meteobridge,2014-02-01 10:52:00,
2014-02-01 04:53:00,18.3,11.1,29.81,North,0,11.4,11.4,73,0.00,,,0.00,meteobridge,2014-02-01 10:53:00,
2014-02-01 04:55:00,18.3,11.1,29.81,North,0,10.7,11.4,73,0.00,,,0.00,meteobridge,2014-02-01 10:55:00,
2014-02-01 04:57:00,18.3,11.1,29.81,North,0,10.7,10.7,73,0.00,,,0.00,meteobridge,2014-02-01 10:57:00,
2014-02-01 04:58:00,18.3,11.1,29.81,North,0,11.4,11.4,73,0.00,,,0.00,meteobridge,2014-02-01 10:58:00,
2014-02-01 04:59:00,18.3,11.1,29.81,North,0,12.1,12.1,73,0.00,,,0.00,meteobridge,2014-02-01 10:59:00,
2014-02-01 05:00:00,18.1,10.9,29.80,North,0,11.4,12.1,73,0.00,,,0.00,meteobridge,2014-02-01 11:00:00,
2014-02-01 05:01:00,18.1,10.9,29.81,North,0,11.4,12.1,73,0.00,,,0.00,meteobridge,2014-02-01 11:01:00,
2014-02-01 05:02:00,18.1,10.9,29.81,NNE,23,12.1,12.1,73,0.00,,,0.00,meteobridge,2014-02-01 11:02:00,
2014-02-01 05:03:00,18.1,10.9,29.80,North,0,12.1,12.1,73,0.00,,,0.00,meteobridge,2014-02-01 11:03:00,
2014-02-01 05:04:00,18.1,10.9,29.80,North,0,12.1,12.1,73,0.00,,,0.00,meteobridge,2014-02-01 11:04:00,
2014-02-01 05:06:00,18.0,10.8,29.80,North,0,13.0,13.0,73,0.00,,,0.00,meteobridge,2014-02-01 11:06:00,
2014-02-01 05:07:00,18.0,10.8,29.80,North,0,13.0,13.0,73,0.00,,,0.00,meteobridge,2014-02-01 11:07:00,
2014-02-01 05:08:00,18.0,10.8,29.80,NE,45,13.0,13.0,73,0.00,,,0.00,meteobridge,2014-02-01 11:08:00,
2014-02-01 05:09:00,18.0,10.8,29.80,North,0,13.6,13.6,73,0.00,,,0.00,meteobridge,2014-02-01 11:09:00,
2014-02-01 05:10:00,18.0,10.8,29.80,North,0,13.6,13.6,73,0.00,,,0.00,meteobridge,2014-02-01 11:10:00,
2014-02-01 05:12:00,18.0,10.8,29.80,North,0,13.6,13.6,73,0.00,,,0.00,meteobridge,2014-02-01 11:12:00,
2014-02-01 05:13:00,18.0,10.8,29.80,North,0,13.6,13.6,73,0.00,,,0.00,meteobridge,2014-02-01 11:13:00,
2014-02-01 05:14:00,18.0,10.8,29.80,North,0,13.0,13.6,73,0.00,,,0.00,meteobridge,2014-02-01 11:14:00,
2014-02-01 05:15:00,18.0,10.8,29.80,North,0,13.0,13.0,73,0.00,,,0.00,meteobridge,2014-02-01 11:15:00,
2014-02-01 05:16:00,18.0,10.8,29.80,NE,45,12.1,13.0,73,0.00,,,0.00,meteobridge,2014-02-01 11:16:00,
2014-02-01 05:18:00,17.8,10.6,29.80,NNE,23,13.0,13.0,73,0.00,,,0.00,meteobridge,2014-02-01 11:18:00,
2014-02-01 05:19:00,17.8,10.6,29.80,NNE,23,13.0,13.0,73,0.00,,,0.00,meteobridge,2014-02-01 11:19:00,
2014-02-01 05:22:00,17.8,10.6,29.80,North,0,13.0,13.6,73,0.00,,,0.00,meteobridge,2014-02-01 11:22:00,
2014-02-01 05:23:00,17.8,10.6,29.80,North,0,13.0,13.6,73,0.00,,,0.00,meteobridge,2014-02-01 11:23:00,
2014-02-01 05:24:00,17.8,10.6,29.79,NE,45,13.0,14.5,73,0.00,,,0.00,meteobridge,2014-02-01 11:24:00,
2014-02-01 05:25:00,17.8,10.6,29.80,North,0,13.6,14.5,73,0.00,,,0.00,meteobridge,2014-02-01 11:25:00,
2014-02-01 05:28:00,17.6,10.4,29.79,NE,45,15.2,15.2,73,0.00,,,0.00,meteobridge,2014-02-01 11:28:00,
2014-02-01 05:29:00,17.6,10.4,29.79,NE,45,15.2,15.2,73,0.00,,,0.00,meteobridge,2014-02-01 11:29:00,
2014-02-01 05:30:00,17.6,10.4,29.79,NE,45,13.6,15.2,73,0.00,,,0.00,meteobridge,2014-02-01 11:30:00,
2014-02-01 05:31:00,17.6,10.4,29.79,NE,45,13.6,13.6,73,0.00,,,0.00,meteobridge,2014-02-01 11:31:00,
2014-02-01 05:33:00,17.6,10.4,29.79,NE,45,13.0,13.6,73,0.00,,,0.00,meteobridge,2014-02-01 11:33:00,
2014-02-01 05:34:00,17.6,10.4,29.79,NE,45,13.6,13.6,73,0.00,,,0.00,meteobridge,2014-02-01 11:34:00,
2014-02-01 05:35:00,17.6,10.4,29.79,NE,45,13.6,13.6,73,0.00,,,0.00,meteobridge,2014-02-01 11:35:00,
2014-02-01 05:36:00,17.6,10.4,29.78,NE,45,12.1,13.6,73,0.00,,,0.00,meteobridge,2014-02-01 11:36:00,
2014-02-01 05:39:00,17.6,10.4,29.79,NE,45,14.5,14.5,73,0.00,,,0.00,meteobridge,2014-02-01 11:39:00,
2014-02-01 05:40:00,17.6,10.4,29.79,NE,45,14.5,14.5,73,0.00,,,0.00,meteobridge,2014-02-01 11:40:00,
2014-02-01 05:41:00,17.6,10.4,29.78,NE,45,13.0,14.5,73,0.00,,,0.00,meteobridge,2014-02-01 11:41:00,
2014-02-01 05:44:00,17.6,10.4,29.79,NNE,23,12.1,12.1,73,0.00,,,0.00,meteobridge,2014-02-01 11:44:00,
2014-02-01 05:45:00,17.6,10.4,29.79,NNE,23,12.1,12.1,73,0.00,,,0.00,meteobridge,2014-02-01 11:45:00,
2014-02-01 05:46:00,17.6,10.4,29.79,NE,45,11.4,12.1,73,0.00,,,0.00,meteobridge,2014-02-01 11:46:00,
2014-02-01 05:47:00,17.6,10.4,29.79,North,0,11.4,12.1,73,0.00,,,0.00,meteobridge,2014-02-01 11:47:00,
2014-02-01 05:48:00,17.8,10.6,29.79,North,0,12.1,12.1,73,0.00,,,0.00,meteobridge,2014-02-01 11:48:00,
2014-02-01 05:51:00,17.8,10.6,29.79,North,0,11.4,11.4,73,0.00,,,0.00,meteobridge,2014-02-01 11:51:00,
2014-02-01 05:52:00,17.8,10.6,29.79,North,0,12.1,12.1,73,0.00,,,0.00,meteobridge,2014-02-01 11:52:00,
2014-02-01 05:53:00,17.8,10.6,29.79,North,0,11.4,12.1,73,0.00,,,0.00,meteobridge,2014-02-01 11:53:00,
2014-02-01 05:54:00,17.8,10.6,29.80,NE,45,10.7,12.1,73,0.00,,,0.00,meteobridge,2014-02-01 11:54:00,
2014-02-01 05:57:00,17.8,10.6,29.80,North,0,11.4,11.4,73,0.00,,,0.00,meteobridge,2014-02-01 11:57:00,
2014-02-01 05:59:00,17.8,10.6,29.80,North,0,10.7,12.1,73,0.00,,,0.00,meteobridge,2014-02-01 11:59:00,
2014-02-01 06:00:00,17.8,10.6,29.80,North,0,11.4,11.4,73,0.00,,,0.00,meteobridge,2014-02-01 12:00:00,
2014-02-01 06:01:00,17.8,10.6,29.80,North,0,11.4,11.4,73,0.00,,,0.00,meteobridge,2014-02-01 12:01:00,
2014-02-01 06:03:00,17.8,10.6,29.81,North,0,11.4,11.4,73,0.00,,,0.00,meteobridge,2014-02-01 12:03:00,
2014-02-01 06:04:00,17.8,10.6,29.82,North,0,11.4,11.4,73,0.00,,,0.00,meteobridge,2014-02-01 12:04:00,
2014-02-01 06:05:00,17.8,10.6,29.81,North,0,11.4,11.4,73,0.00,,,0.00,meteobridge,2014-02-01 12:05:00,
2014-02-01 06:07:00,17.8,10.6,29.80,North,0,11.4,11.4,73,0.00,,,0.00,meteobridge,2014-02-01 12:07:00,
2014-02-01 06:08:00,18.0,10.8,29.81,North,0,10.7,11.4,73,0.00,,,0.00,meteobridge,2014-02-01 12:08:00,
2014-02-01 06:09:00,18.0,10.8,29.80,North,0,9.8,11.4,73,0.00,,,0.00,meteobridge,2014-02-01 12:09:00,
2014-02-01 06:10:00,18.0,10.8,29.80,North,0,9.8,11.4,73,0.00,,,0.00,meteobridge,2014-02-01 12:10:00,
2014-02-01 06:12:00,18.0,10.8,29.81,North,0,11.4,12.1,73,0.00,,,0.00,meteobridge,2014-02-01 12:12:00,
2014-02-01 06:13:00,18.0,10.8,29.81,North,0,10.7,12.1,73,0.00,,,0.00,meteobridge,2014-02-01 12:13:00,
2014-02-01 06:14:00,18.0,10.8,29.81,North,0,11.4,11.4,73,0.00,,,0.00,meteobridge,2014-02-01 12:14:00,
2014-02-01 06:15:00,18.0,10.8,29.80,North,0,11.4,11.4,73,0.00,,,0.00,meteobridge,2014-02-01 12:15:00,
2014-02-01 06:16:00,18.0,10.8,29.80,North,0,11.4,11.4,73,0.00,,,0.00,meteobridge,2014-02-01 12:16:00,
2014-02-01 06:19:00,18.0,10.8,29.80,North,0,11.4,12.1,73,0.00,,,0.00,meteobridge,2014-02-01 12:19:00,
2014-02-01 06:20:00,18.0,10.8,29.80,North,0,11.4,12.1,73,0.00,,,0.00,meteobridge,2014-02-01 12:20:00,
2014-02-01 06:21:00,18.0,10.8,29.81,North,0,10.7,11.4,73,0.00,,,0.00,meteobridge,2014-02-01 12:21:00,
2014-02-01 06:23:00,18.0,10.8,29.81,North,0,10.7,11.4,73,0.00,,,0.00,meteobridge,2014-02-01 12:23:00,
2014-02-01 06:24:00,18.0,10.8,29.81,North,0,10.7,11.4,73,0.00,,,0.00,meteobridge,2014-02-01 12:24:00,
2014-02-01 06:25:00,18.1,10.9,29.80,North,0,11.4,12.1,73,0.00,,,0.00,meteobridge,2014-02-01 12:25:00,
2014-02-01 06:26:00,18.1,10.9,29.80,North,0,11.4,12.1,73,0.00,,,0.00,meteobridge,2014-02-01 12:26:00,
2014-02-01 06:27:00,18.1,10.9,29.80,North,0,12.1,12.1,73,0.00,,,0.00,meteobridge,2014-02-01 12:27:00,
2014-02-01 06:29:00,18.1,10.9,29.81,North,0,11.4,12.1,73,0.00,,,0.00,meteobridge,2014-02-01 12:29:00,
2014-02-01 06:30:00,18.1,10.9,29.81,North,0,12.1,12.1,73,0.00,,,0.00,meteobridge,2014-02-01 12:30:00,
2014-02-01 06:31:00,18.1,10.9,29.81,North,0,12.1,12.1,73,0.00,,,0.00,meteobridge,2014-02-01 12:31:00,
2014-02-01 06:32:00,18.1,10.9,29.81,North,0,12.1,12.1,73,0.00,,,0.00,meteobridge,2014-02-01 12:32:00,
2014-02-01 06:35:00,18.1,10.9,29.80,North,0,13.0,13.0,73,0.00,,,0.00,meteobridge,2014-02-01 12:35:00,
2014-02-01 06:36:00,18.1,10.9,29.80,North,0,13.0,13.0,73,0.00,,,0.00,meteobridge,2014-02-01 12:36:00,
2014-02-01 06:37:00,18.1,10.9,29.80,North,0,12.1,13.0,73,0.00,,,0.00,meteobridge,2014-02-01 12:37:00,
2014-02-01 06:38:00,18.1,10.9,29.80,North,0,14.5,14.5,73,0.00,,,0.00,meteobridge,2014-02-01 12:38:00,
2014-02-01 06:42:00,18.1,10.9,29.80,North,0,12.1,13.6,73,0.00,,,0.00,meteobridge,2014-02-01 12:42:00,
2014-02-01 06:43:00,18.1,10.9,29.80,North,0,13.0,13.6,73,0.00,,,0.00,meteobridge,2014-02-01 12:43:00,
2014-02-01 06:44:00,18.1,10.9,29.79,North,0,13.6,13.6,73,0.00,,,0.00,meteobridge,2014-02-01 12:44:00,
2014-02-01 06:45:00,18.3,11.1,29.80,North,0,13.6,13.6,73,0.00,,,0.00,meteobridge,2014-02-01 12:45:00,
2014-02-01 06:47:00,18.3,11.1,29.79,North,0,13.6,14.5,73,0.00,,,0.00,meteobridge,2014-02-01 12:47:00,
2014-02-01 06:48:00,18.3,11.1,29.78,North,0,13.0,14.5,73,0.00,,,0.00,meteobridge,2014-02-01 12:48:00,
2014-02-01 06:50:00,18.3,11.1,29.79,North,0,13.0,13.0,73,0.00,,,0.00,meteobridge,2014-02-01 12:50:00,
2014-02-01 06:52:00,18.3,11.1,29.79,NE,45,13.6,13.6,73,0.00,,,0.00,meteobridge,2014-02-01 12:52:00,
2014-02-01 06:53:00,18.3,11.1,29.78,North,0,15.9,15.9,73,0.00,,,0.00,meteobridge,2014-02-01 12:53:00,
2014-02-01 06:54:00,18.3,11.1,29.78,North,0,15.9,15.9,73,0.00,,,0.00,meteobridge,2014-02-01 12:54:00,
2014-02-01 06:55:00,18.3,11.1,29.78,NNE,23,15.2,15.9,73,0.00,,,0.00,meteobridge,2014-02-01 12:55:00,
2014-02-01 06:57:00,18.3,11.1,29.77,NE,45,15.2,15.2,73,0.00,,,0.00,meteobridge,2014-02-01 12:57:00,
2014-02-01 06:58:00,18.3,11.1,29.77,NE,45,16.8,16.8,73,0.00,,,0.00,meteobridge,2014-02-01 12:58:00,
2014-02-01 06:59:00,18.3,11.1,29.76,NE,45,15.9,16.8,73,0.00,,,0.00,meteobridge,2014-02-01 12:59:00,
2014-02-01 07:01:00,18.3,11.1,29.76,NE,45,16.8,16.8,73,0.00,,,0.00,meteobridge,2014-02-01 13:01:00,
2014-02-01 07:02:00,18.3,11.1,29.76,NE,45,17.4,17.4,73,0.00,,,0.00,meteobridge,2014-02-01 13:02:00,
2014-02-01 07:04:00,18.3,11.1,29.76,NE,45,15.2,17.4,73,0.00,,,0.00,meteobridge,2014-02-01 13:04:00,
2014-02-01 07:05:00,18.3,11.1,29.75,NE,45,14.5,15.9,73,0.00,,,0.00,meteobridge,2014-02-01 13:05:00,
2014-02-01 07:06:00,18.3,11.1,29.76,NE,45,15.2,15.9,73,0.00,,,0.00,meteobridge,2014-02-01 13:06:00,
2014-02-01 07:08:00,18.3,11.1,29.76,NE,45,15.2,15.2,73,0.00,,,0.00,meteobridge,2014-02-01 13:08:00,
2014-02-01 07:09:00,18.3,11.1,29.76,NE,45,14.5,15.2,73,0.00,,,0.00,meteobridge,2014-02-01 13:09:00,
2014-02-01 07:11:00,18.3,11.1,29.76,NE,45,16.8,16.8,73,0.00,,,0.00,meteobridge,2014-02-01 13:11:00,
2014-02-01 07:12:00,18.3,11.1,29.76,NE,45,16.8,16.8,73,0.00,,,0.00,meteobridge,2014-02-01 13:12:00,
2014-02-01 07:13:00,18.3,11.1,29.76,North,0,14.5,15.9,73,0.00,,,0.00,meteobridge,2014-02-01 13:13:00,
2014-02-01 07:15:00,18.1,10.9,29.77,North,0,15.2,15.2,73,0.00,,,0.00,meteobridge,2014-02-01 13:15:00,
2014-02-01 07:16:00,18.1,10.9,29.77,North,0,15.2,15.2,73,0.00,,,0.00,meteobridge,2014-02-01 13:16:00,
2014-02-01 07:17:00,18.1,10.9,29.77,North,0,14.5,15.2,73,0.00,,,0.00,meteobridge,2014-02-01 13:17:00,
2014-02-01 07:18:00,18.1,10.9,29.77,North,0,14.5,15.2,73,0.00,,,0.00,meteobridge,2014-02-01 13:18:00,
2014-02-01 07:19:00,18.3,11.1,29.77,North,0,14.5,14.5,73,0.00,,,0.00,meteobridge,2014-02-01 13:19:00,
2014-02-01 07:21:00,18.3,11.1,29.77,North,0,13.6,15.9,73,0.00,,,0.00,meteobridge,2014-02-01 13:21:00,
2014-02-01 07:22:00,18.3,11.1,29.77,North,0,13.6,15.9,73,0.00,,,0.00,meteobridge,2014-02-01 13:22:00,
2014-02-01 07:23:00,18.3,11.1,29.78,North,0,13.6,13.6,73,0.00,,,0.00,meteobridge,2014-02-01 13:23:00,
2014-02-01 07:25:00,18.3,11.1,29.78,SW,225,13.0,13.6,73,0.00,,,0.00,meteobridge,2014-02-01 13:25:00,
2014-02-01 07:27:00,18.5,11.3,29.79,North,0,12.1,13.0,73,0.00,,,0.00,meteobridge,2014-02-01 13:27:00,
2014-02-01 07:30:00,18.5,11.3,29.79,North,0,12.1,12.1,73,0.00,,,0.00,meteobridge,2014-02-01 13:30:00,
2014-02-01 07:31:00,18.5,11.3,29.80,North,0,13.0,13.0,73,0.00,,,0.00,meteobridge,2014-02-01 13:31:00,
2014-02-01 07:32:00,18.5,11.3,29.80,North,0,11.4,13.0,73,0.00,,,0.00,meteobridge,2014-02-01 13:32:00,
2014-02-01 07:33:00,18.5,11.3,29.79,North,0,13.6,13.6,73,0.00,,,0.00,meteobridge,2014-02-01 13:33:00,
2014-02-01 07:35:00,18.7,11.8,29.79,North,0,13.6,13.6,74,0.00,,,0.00,meteobridge,2014-02-01 13:35:00,
2014-02-01 07:37:00,18.7,11.8,29.79,North,0,13.0,13.6,74,0.00,,,0.00,meteobridge,2014-02-01 13:37:00,
2014-02-01 07:38:00,18.7,11.8,29.79,North,0,13.6,13.6,74,0.00,,,0.00,meteobridge,2014-02-01 13:38:00,
2014-02-01 07:40:00,18.7,11.8,29.79,North,0,14.5,14.5,74,0.00,,,0.00,meteobridge,2014-02-01 13:40:00,
2014-02-01 07:41:00,18.7,11.8,29.79,North,0,15.9,15.9,74,0.00,,,0.00,meteobridge,2014-02-01 13:41:00,
2014-02-01 07:44:00,18.7,11.8,29.79,North,0,15.2,15.9,74,0.00,,,0.00,meteobridge,2014-02-01 13:44:00,
2014-02-01 07:45:00,18.7,11.8,29.80,North,0,13.6,15.9,74,0.00,,,0.00,meteobridge,2014-02-01 13:45:00,
2014-02-01 07:46:00,18.7,11.8,29.80,North,0,13.6,15.9,74,0.00,,,0.00,meteobridge,2014-02-01 13:46:00,
2014-02-01 07:48:00,18.9,12.0,29.80,North,0,13.6,13.6,74,0.00,,,0.00,meteobridge,2014-02-01 13:48:00,
2014-02-01 07:49:00,18.9,12.0,29.80,North,0,12.1,13.6,74,0.00,,,0.00,meteobridge,2014-02-01 13:49:00,
2014-02-01 07:51:00,18.9,12.0,29.80,North,0,13.0,14.5,74,0.00,,,0.00,meteobridge,2014-02-01 13:51:00,
2014-02-01 07:53:00,18.9,12.0,29.81,North,0,13.0,13.0,74,0.00,,,0.00,meteobridge,2014-02-01 13:53:00,
2014-02-01 07:54:00,18.9,12.0,29.81,North,0,13.0,13.6,74,0.00,,,0.00,meteobridge,2014-02-01 13:54:00,
2014-02-01 07:55:00,18.9,12.0,29.81,North,0,15.2,15.2,74,0.00,,,0.00,meteobridge,2014-02-01 13:55:00,
2014-02-01 07:57:00,18.9,12.0,29.80,North,0,13.6,15.2,74,0.00,,,0.00,meteobridge,2014-02-01 13:57:00,
2014-02-01 07:58:00,18.9,12.0,29.80,North,0,14.5,15.2,74,0.00,,,0.00,meteobridge,2014-02-01 13:58:00,
2014-02-01 07:59:00,18.9,12.0,29.80,North,0,14.5,14.5,74,0.00,,,0.00,meteobridge,2014-02-01 13:59:00,
2014-02-01 08:00:00,18.9,12.0,29.80,North,0,15.2,15.2,74,0.00,,,0.00,meteobridge,2014-02-01 14:00:00,
2014-02-01 08:02:00,18.9,12.0,29.80,North,0,14.5,15.2,74,0.00,,,0.00,meteobridge,2014-02-01 14:02:00,
2014-02-01 08:03:00,18.9,12.0,29.80,North,0,13.6,15.2,74,0.00,,,0.00,meteobridge,2014-02-01 14:03:00,
2014-02-01 08:04:00,18.9,12.0,29.80,North,0,15.9,15.9,74,0.00,,,0.00,meteobridge,2014-02-01 14:04:00,
2014-02-01 08:05:00,18.9,12.0,29.80,North,0,15.9,15.9,74,0.00,,,0.00,meteobridge,2014-02-01 14:05:00,
2014-02-01 08:08:00,18.9,12.0,29.81,North,0,14.5,15.9,74,0.00,,,0.00,meteobridge,2014-02-01 14:08:00,
2014-02-01 08:09:00,18.9,12.0,29.81,North,0,14.5,15.2,74,0.00,,,0.00,meteobridge,2014-02-01 14:09:00,
2014-02-01 08:10:00,18.9,12.0,29.80,North,0,13.0,14.5,74,0.00,,,0.00,meteobridge,2014-02-01 14:10:00,
2014-02-01 08:12:00,18.7,11.8,29.80,North,0,9.8,13.0,74,0.00,,,0.00,meteobridge,2014-02-01 14:12:00,
2014-02-01 08:13:00,18.9,12.0,29.80,North,0,11.4,11.4,74,0.00,,,0.00,meteobridge,2014-02-01 14:13:00,
2014-02-01 08:14:00,18.9,12.0,29.80,North,0,13.0,13.0,74,0.00,,,0.00,meteobridge,2014-02-01 14:14:00,
2014-02-01 08:15:00,18.7,11.8,29.79,North,0,12.1,13.0,74,0.00,,,0.00,meteobridge,2014-02-01 14:15:00,
2014-02-01 08:16:00,18.7,11.8,29.79,North,0,12.1,12.1,74,0.00,,,0.00,meteobridge,2014-02-01 14:16:00,
2014-02-01 08:18:00,18.7,11.8,29.79,North,0,14.5,14.5,74,0.00,,,0.00,meteobridge,2014-02-01 14:18:00,
2014-02-01 08:19:00,18.7,11.8,29.80,North,0,13.0,14.5,74,0.00,,,0.00,meteobridge,2014-02-01 14:19:00,
2014-02-01 08:20:00,18.7,11.8,29.79,North,0,15.2,15.2,74,0.00,,,0.00,meteobridge,2014-02-01 14:20:00,
2014-02-01 08:22:00,18.9,12.0,29.79,North,0,16.8,16.8,74,0.00,,,0.00,meteobridge,2014-02-01 14:22:00,
2014-02-01 08:23:00,18.9,12.0,29.80,North,0,14.5,16.8,74,0.00,,,0.00,meteobridge,2014-02-01 14:23:00,
2014-02-01 08:24:00,18.7,11.8,29.79,North,0,14.5,15.2,74,0.00,,,0.00,meteobridge,2014-02-01 14:24:00,
2014-02-01 08:25:00,18.7,11.8,29.79,North,0,16.8,16.8,74,0.00,,,0.00,meteobridge,2014-02-01 14:25:00,
2014-02-01 08:26:00,18.7,11.5,29.79,North,0,15.2,16.8,73,0.00,,,0.00,meteobridge,2014-02-01 14:26:00,
2014-02-01 08:27:00,18.9,11.7,29.79,North,0,13.6,16.8,73,0.00,,,0.00,meteobridge,2014-02-01 14:27:00,
2014-02-01 08:28:00,18.9,11.7,29.79,North,0,14.5,15.2,73,0.00,,,0.00,meteobridge,2014-02-01 14:28:00,
2014-02-01 08:29:00,18.9,11.7,29.78,North,0,17.4,17.4,73,0.00,,,0.00,meteobridge,2014-02-01 14:29:00,
2014-02-01 08:30:00,18.9,11.7,29.78,North,0,18.3,18.3,73,0.00,,,0.00,meteobridge,2014-02-01 14:30:00,
2014-02-01 08:31:00,18.9,11.7,29.78,North,0,17.4,18.3,73,0.00,,,0.00,meteobridge,2014-02-01 14:31:00,
2014-02-01 08:34:00,19.0,11.8,29.79,North,0,16.8,16.8,73,0.00,,,0.00,meteobridge,2014-02-01 14:34:00,
2014-02-01 08:35:00,19.0,11.8,29.79,North,0,17.4,17.4,73,0.00,,,0.00,meteobridge,2014-02-01 14:35:00,
2014-02-01 08:36:00,19.0,11.8,29.79,North,0,16.8,17.4,73,0.00,,,0.00,meteobridge,2014-02-01 14:36:00,
2014-02-01 08:37:00,18.9,11.7,29.79,North,0,16.8,16.8,73,0.00,,,0.00,meteobridge,2014-02-01 14:37:00,
2014-02-01 08:39:00,18.9,11.7,29.80,North,0,14.5,15.2,73,0.00,,,0.00,meteobridge,2014-02-01 14:39:00,
2014-02-01 08:41:00,19.0,11.8,29.80,North,0,13.0,14.5,73,0.00,,,0.00,meteobridge,2014-02-01 14:41:00,
2014-02-01 08:43:00,19.0,11.8,29.80,North,0,13.6,13.6,73,0.00,,,0.00,meteobridge,2014-02-01 14:43:00,
2014-02-01 08:44:00,18.9,11.7,29.80,North,0,12.1,14.5,73,0.00,,,0.00,meteobridge,2014-02-01 14:44:00,
2014-02-01 08:45:00,18.9,11.7,29.80,North,0,11.4,14.5,73,0.00,,,0.00,meteobridge,2014-02-01 14:45:00,
2014-02-01 08:46:00,18.9,11.7,29.80,North,0,11.4,12.1,73,0.00,,,0.00,meteobridge,2014-02-01 14:46:00,
2014-02-01 08:47:00,18.9,11.7,29.80,North,0,11.4,11.4,73,0.00,,,0.00,meteobridge,2014-02-01 14:47:00,
2014-02-01 08:49:00,18.9,11.7,29.80,North,0,11.4,13.6,73,0.00,,,0.00,meteobridge,2014-02-01 14:49:00,
2014-02-01 08:50:00,18.9,11.7,29.80,North,0,14.5,14.5,73,0.00,,,0.00,meteobridge,2014-02-01 14:50:00,
2014-02-01 08:52:00,18.9,11.7,29.80,North,0,11.4,13.0,73,0.00,,,0.00,meteobridge,2014-02-01 14:52:00,
2014-02-01 08:54:00,18.9,11.7,29.80,North,0,13.0,14.5,73,0.00,,,0.00,meteobridge,2014-02-01 14:54:00,
2014-02-01 08:55:00,18.9,11.7,29.80,North,0,12.1,14.5,73,0.00,,,0.00,meteobridge,2014-02-01 14:55:00,
2014-02-01 08:56:00,19.0,11.8,29.80,North,0,13.0,13.0,73,0.00,,,0.00,meteobridge,2014-02-01 14:56:00,
2014-02-01 08:58:00,19.0,11.8,29.80,North,0,13.6,13.6,73,0.00,,,0.00,meteobridge,2014-02-01 14:58:00,
2014-02-01 08:59:00,19.0,11.8,29.80,North,0,12.1,14.5,73,0.00,,,0.00,meteobridge,2014-02-01 14:59:00,
2014-02-01 09:00:00,19.0,11.8,29.80,North,0,11.4,14.5,73,0.00,,,0.00,meteobridge,2014-02-01 15:00:00,
2014-02-01 09:02:00,19.0,11.8,29.80,North,0,11.4,12.1,73,0.00,,,0.00,meteobridge,2014-02-01 15:02:00,
2014-02-01 09:03:00,19.0,11.8,29.80,NNE,23,12.1,12.1,73,0.00,,,0.00,meteobridge,2014-02-01 15:03:00,
2014-02-01 09:07:00,19.0,11.8,29.80,NE,45,13.0,13.0,73,0.00,,,0.00,meteobridge,2014-02-01 15:07:00,
2014-02-01 09:08:00,19.0,11.8,29.80,NE,45,12.1,13.0,73,0.00,,,0.00,meteobridge,2014-02-01 15:08:00,
2014-02-01 09:09:00,19.0,11.8,29.80,NE,45,12.1,13.0,73,0.00,,,0.00,meteobridge,2014-02-01 15:09:00,
2014-02-01 09:10:00,19.0,11.8,29.80,North,0,13.0,13.0,73,0.00,,,0.00,meteobridge,2014-02-01 15:10:00,
2014-02-01 09:13:00,19.0,11.8,29.80,North,0,11.4,12.1,73,0.00,,,0.00,meteobridge,2014-02-01 15:13:00,
2014-02-01 09:15:00,19.0,11.8,29.80,North,0,10.7,11.4,73,0.00,,,0.00,meteobridge,2014-02-01 15:15:00,
2014-02-01 09:16:00,19.0,11.8,29.80,North,0,13.6,13.6,73,0.00,,,0.00,meteobridge,2014-02-01 15:16:00,
2014-02-01 09:17:00,19.0,11.8,29.81,North,0,13.6,13.6,73,0.00,,,0.00,meteobridge,2014-02-01 15:17:00,
2014-02-01 09:18:00,19.0,11.8,29.81,North,0,13.6,13.6,73,0.00,,,0.00,meteobridge,2014-02-01 15:18:00,
2014-02-01 09:19:00,19.0,11.8,29.81,North,0,11.4,13.6,73,0.00,,,0.00,meteobridge,2014-02-01 15:19:00,
2014-02-01 09:21:00,19.0,11.8,29.82,North,0,10.7,11.4,73,0.00,,,0.00,meteobridge,2014-02-01 15:21:00,
2014-02-01 09:22:00,18.9,11.7,29.82,North,0,11.4,11.4,73,0.00,,,0.00,meteobridge,2014-02-01 15:22:00,
2014-02-01 09:23:00,19.0,11.8,29.82,North,0,11.4,12.1,73,0.00,,,0.00,meteobridge,2014-02-01 15:23:00,
2014-02-01 09:26:00,19.0,11.8,29.82,North,0,11.4,12.1,73,0.00,,,0.00,meteobridge,2014-02-01 15:26:00,
2014-02-01 09:27:00,19.0,11.8,29.81,North,0,11.4,11.4,73,0.00,,,0.00,meteobridge,2014-02-01 15:27:00,
2014-02-01 09:29:00,18.9,11.7,29.81,North,0,12.1,12.1,73,0.00,,,0.00,meteobridge,2014-02-01 15:29:00,
2014-02-01 09:30:00,18.9,11.7,29.80,North,0,10.7,12.1,73,0.00,,,0.00,meteobridge,2014-02-01 15:30:00,
2014-02-01 09:32:00,19.0,11.8,29.81,North,0,11.4,11.4,73,0.00,,,0.00,meteobridge,2014-02-01 15:32:00,
2014-02-01 09:35:00,19.0,11.8,29.81,NNE,23,10.7,12.1,73,0.00,,,0.00,meteobridge,2014-02-01 15:35:00,
2014-02-01 09:37:00,19.0,11.8,29.81,North,0,12.1,12.1,73,0.00,,,0.00,meteobridge,2014-02-01 15:37:00,
2014-02-01 09:38:00,19.0,11.8,29.81,NE,45,13.0,13.0,73,0.00,,,0.00,meteobridge,2014-02-01 15:38:00,
2014-02-01 09:39:00,19.0,11.8,29.81,North,0,11.4,13.0,73,0.00,,,0.00,meteobridge,2014-02-01 15:39:00,
2014-02-01 09:41:00,19.0,11.8,29.81,North,0,11.4,11.4,73,0.00,,,0.00,meteobridge,2014-02-01 15:41:00,
2014-02-01 09:43:00,19.2,12.0,29.81,North,0,10.7,11.4,73,0.00,,,0.00,meteobridge,2014-02-01 15:43:00,
2014-02-01 09:44:00,19.2,12.0,29.81,North,0,13.0,13.0,73,0.00,,,0.00,meteobridge,2014-02-01 15:44:00,
2014-02-01 09:46:00,19.2,12.0,29.81,North,0,13.6,13.6,73,0.00,,,0.00,meteobridge,2014-02-01 15:46:00,
2014-02-01 09:47:00,19.0,11.8,29.81,North,0,13.0,13.6,73,0.00,,,0.00,meteobridge,2014-02-01 15:47:00,
2014-02-01 09:50:00,19.0,11.8,29.81,North,0,12.1,13.6,73,0.00,,,0.00,meteobridge,2014-02-01 15:50:00,
2014-02-01 09:51:00,18.9,11.7,29.81,North,0,13.6,13.6,73,0.00,,,0.00,meteobridge,2014-02-01 15:51:00,
2014-02-01 09:52:00,19.0,11.5,29.82,North,0,12.1,13.6,72,0.00,,,0.00,meteobridge,2014-02-01 15:52:00,
2014-02-01 09:53:00,19.0,11.5,29.81,North,0,11.4,13.0,72,0.00,,,0.00,meteobridge,2014-02-01 15:53:00,
2014-02-01 09:55:00,19.0,11.5,29.81,North,0,13.6,13.6,72,0.00,,,0.00,meteobridge,2014-02-01 15:55:00,
2014-02-01 09:56:00,19.0,11.5,29.81,North,0,13.0,13.6,72,0.00,,,0.00,meteobridge,2014-02-01 15:56:00,
2014-02-01 09:57:00,19.0,11.5,29.81,North,0,12.1,13.0,72,0.00,,,0.00,meteobridge,2014-02-01 15:57:00,
2014-02-01 10:01:00,19.4,13.1,29.82,North,0,10.7,10.7,76,0.00,,,0.00,meteobridge,2014-02-01 16:01:00,
2014-02-01 10:02:00,19.4,13.5,29.82,North,0,12.1,12.1,77,0.00,,,0.00,meteobridge,2014-02-01 16:02:00,
2014-02-01 10:06:00,19.6,13.6,29.82,North,0,10.7,10.7,77,0.00,,,0.00,meteobridge,2014-02-01 16:06:00,
2014-02-01 10:07:00,19.6,13.6,29.82,North,0,10.7,10.7,77,0.00,,,0.00,meteobridge,2014-02-01 16:07:00,
2014-02-01 10:08:00,19.6,13.6,29.82,North,0,9.8,10.7,77,0.00,,,0.00,meteobridge,2014-02-01 16:08:00,
2014-02-01 10:09:00,19.6,13.6,29.82,North,0,12.1,12.1,77,0.00,,,0.00,meteobridge,2014-02-01 16:09:00,
2014-02-01 10:12:00,19.6,13.3,29.82,North,0,8.3,10.7,76,0.00,,,0.00,meteobridge,2014-02-01 16:12:00,
2014-02-01 10:13:00,19.6,13.3,29.82,North,0,6.9,9.8,76,0.00,,,0.00,meteobridge,2014-02-01 16:13:00,
2014-02-01 10:14:00,19.8,13.6,29.83,North,0,6.0,8.3,77,0.00,,,0.00,meteobridge,2014-02-01 16:14:00,
2014-02-01 10:16:00,19.8,13.6,29.83,North,0,6.9,6.9,77,0.00,,,0.00,meteobridge,2014-02-01 16:16:00,
2014-02-01 10:18:00,19.9,13.8,29.83,NW,315,7.6,9.8,77,0.00,,,0.00,meteobridge,2014-02-01 16:18:00,
2014-02-01 10:19:00,19.9,13.8,29.82,North,0,9.8,9.8,77,0.00,,,0.00,meteobridge,2014-02-01 16:19:00,
2014-02-01 10:20:00,19.9,13.8,29.82,North,0,9.8,9.8,77,0.00,,,0.00,meteobridge,2014-02-01 16:20:00,
2014-02-01 10:23:00,19.9,13.8,29.82,NW,315,11.4,12.1,77,0.00,,,0.00,meteobridge,2014-02-01 16:23:00,
2014-02-01 10:24:00,19.9,13.8,29.82,NW,315,11.4,12.1,77,0.00,,,0.00,meteobridge,2014-02-01 16:24:00,
2014-02-01 10:25:00,19.9,13.6,29.82,North,0,10.7,11.4,76,0.00,,,0.00,meteobridge,2014-02-01 16:25:00,
2014-02-01 10:26:00,19.9,13.6,29.82,North,0,9.2,10.7,76,0.00,,,0.00,meteobridge,2014-02-01 16:26:00,
2014-02-01 10:28:00,20.1,13.8,29.82,NW,315,6.9,7.6,76,0.00,,,0.00,meteobridge,2014-02-01 16:28:00,
2014-02-01 10:29:00,20.1,13.8,29.82,North,0,9.8,9.8,76,0.00,,,0.00,meteobridge,2014-02-01 16:29:00,
2014-02-01 10:30:00,20.3,14.0,29.83,NW,315,9.2,9.8,76,0.00,,,0.00,meteobridge,2014-02-01 16:30:00,
2014-02-01 10:31:00,20.3,14.0,29.83,NW,315,8.3,9.8,76,0.00,,,0.00,meteobridge,2014-02-01 16:31:00,
2014-02-01 10:32:00,20.3,14.0,29.83,NW,315,8.3,9.2,76,0.00,,,0.00,meteobridge,2014-02-01 16:32:00,
2014-02-01 10:34:00,20.3,14.0,29.83,North,0,9.2,9.2,76,0.00,,,0.00,meteobridge,2014-02-01 16:34:00,
2014-02-01 10:35:00,20.3,14.0,29.83,North,0,8.3,9.2,76,0.00,,,0.00,meteobridge,2014-02-01 16:35:00,
2014-02-01 10:36:00,20.3,14.0,29.82,North,0,8.3,9.2,76,0.00,,,0.00,meteobridge,2014-02-01 16:36:00,
2014-02-01 10:37:00,20.3,14.0,29.82,NW,315,11.4,11.4,76,0.00,,,0.00,meteobridge,2014-02-01 16:37:00,
2014-02-01 10:38:00,20.3,14.0,29.82,North,0,9.8,11.4,76,0.00,,,0.00,meteobridge,2014-02-01 16:38:00,
2014-02-01 10:39:00,20.1,13.8,29.82,North,0,11.4,11.4,76,0.00,,,0.00,meteobridge,2014-02-01 16:39:00,
2014-02-01 10:41:00,19.9,13.6,29.83,NW,315,11.4,11.4,76,0.00,,,0.00,meteobridge,2014-02-01 16:41:00,
2014-02-01 10:43:00,19.9,13.6,29.84,NE,45,8.3,11.4,76,0.00,,,0.00,meteobridge,2014-02-01 16:43:00,
2014-02-01 10:44:00,19.9,13.6,29.83,North,0,7.6,10.7,76,0.00,,,0.00,meteobridge,2014-02-01 16:44:00,
2014-02-01 10:45:00,19.9,13.6,29.83,North,0,7.6,8.3,76,0.00,,,0.00,meteobridge,2014-02-01 16:45:00,
2014-02-01 10:47:00,20.1,13.8,29.83,North,0,8.3,8.3,76,0.00,,,0.00,meteobridge,2014-02-01 16:47:00,
2014-02-01 10:48:00,20.1,13.8,29.83,North,0,6.9,8.3,76,0.00,,,0.00,meteobridge,2014-02-01 16:48:00,
2014-02-01 10:49:00,20.3,14.0,29.83,NW,315,6.9,8.3,76,0.00,,,0.00,meteobridge,2014-02-01 16:49:00,
2014-02-01 10:50:00,20.3,14.0,29.83,NW,315,9.2,9.2,76,0.00,,,0.00,meteobridge,2014-02-01 16:50:00,
2014-02-01 10:51:00,20.3,14.0,29.83,NW,315,9.2,9.2,76,0.00,,,0.00,meteobridge,2014-02-01 16:51:00,
2014-02-01 10:52:00,20.5,14.2,29.83,NW,315,9.2,9.2,76,0.00,,,0.00,meteobridge,2014-02-01 16:52:00,
2014-02-01 10:54:00,20.7,14.4,29.83,North,0,6.0,9.2,76,0.00,,,0.00,meteobridge,2014-02-01 16:54:00,
2014-02-01 10:55:00,20.7,14.4,29.83,NW,315,9.2,9.2,76,0.00,,,0.00,meteobridge,2014-02-01 16:55:00,
2014-02-01 10:57:00,20.7,14.4,29.83,North,0,9.2,9.2,76,0.00,,,0.00,meteobridge,2014-02-01 16:57:00,
2014-02-01 10:58:00,20.7,14.4,29.83,North,0,9.2,9.2,76,0.00,,,0.00,meteobridge,2014-02-01 16:58:00,
2014-02-01 10:59:00,20.7,14.4,29.83,North,0,8.3,9.2,76,0.00,,,0.00,meteobridge,2014-02-01 16:59:00,
2014-02-01 11:00:00,20.8,14.5,29.83,North,0,9.2,9.2,76,0.00,,,0.00,meteobridge,2014-02-01 17:00:00,
2014-02-01 11:01:00,21.0,14.7,29.82,North,0,6.9,9.2,76,0.00,,,0.00,meteobridge,2014-02-01 17:01:00,
2014-02-01 11:03:00,21.0,14.7,29.82,NW,315,9.2,9.2,76,0.00,,,0.00,meteobridge,2014-02-01 17:03:00,
2014-02-01 11:04:00,21.0,14.7,29.82,North,0,10.7,10.7,76,0.00,,,0.00,meteobridge,2014-02-01 17:04:00,
2014-02-01 11:05:00,21.0,14.7,29.82,North,0,8.3,10.7,76,0.00,,,0.00,meteobridge,2014-02-01 17:05:00,
2014-02-01 11:06:00,21.0,14.7,29.82,North,0,8.3,10.7,76,0.00,,,0.00,meteobridge,2014-02-01 17:06:00,
2014-02-01 11:08:00,21.4,14.7,29.82,North,0,10.7,13.0,75,0.00,,,0.00,meteobridge,2014-02-01 17:08:00,
2014-02-01 11:10:00,21.4,14.7,29.82,North,0,8.3,10.7,75,0.00,,,0.00,meteobridge,2014-02-01 17:10:00,
2014-02-01 11:11:00,21.4,14.7,29.82,North,0,7.6,9.2,75,0.00,,,0.00,meteobridge,2014-02-01 17:11:00,
2014-02-01 11:12:00,21.4,14.7,29.82,North,0,8.3,9.2,75,0.00,,,0.00,meteobridge,2014-02-01 17:12:00,
2014-02-01 11:13:00,21.4,14.7,29.82,WSW,248,7.6,8.3,75,0.00,,,0.00,meteobridge,2014-02-01 17:13:00,
2014-02-01 11:15:00,21.4,14.7,29.82,West,270,8.3,8.3,75,0.00,,,0.00,meteobridge,2014-02-01 17:15:00,
2014-02-01 11:16:00,21.4,14.7,29.82,NW,315,9.2,9.2,75,0.00,,,0.00,meteobridge,2014-02-01 17:16:00,
2014-02-01 11:17:00,21.4,14.7,29.82,North,0,9.8,9.8,75,0.00,,,0.00,meteobridge,2014-02-01 17:17:00,
2014-02-01 11:20:00,21.2,14.2,29.82,North,0,9.8,9.8,74,0.00,,,0.00,meteobridge,2014-02-01 17:20:00,
2014-02-01 11:21:00,21.0,14.4,29.82,North,0,10.7,10.7,75,0.00,,,0.00,meteobridge,2014-02-01 17:21:00,
2014-02-01 11:22:00,21.0,14.4,29.82,North,0,10.7,10.7,75,0.00,,,0.00,meteobridge,2014-02-01 17:22:00,
2014-02-01 11:26:00,21.2,14.2,29.82,North,0,8.3,8.3,74,0.00,,,0.00,meteobridge,2014-02-01 17:26:00,
2014-02-01 11:27:00,21.2,14.2,29.82,North,0,8.3,8.3,74,0.00,,,0.00,meteobridge,2014-02-01 17:27:00,
2014-02-01 11:28:00,21.4,14.4,29.82,NW,315,6.9,8.3,74,0.00,,,0.00,meteobridge,2014-02-01 17:28:00,
2014-02-01 11:29:00,21.4,14.4,29.82,NE,45,7.6,7.6,74,0.00,,,0.00,meteobridge,2014-02-01 17:29:00,
2014-02-01 11:31:00,21.4,14.4,29.83,North,0,8.3,8.3,74,0.00,,,0.00,meteobridge,2014-02-01 17:31:00,
2014-02-01 11:32:00,21.4,14.4,29.82,North,0,9.8,9.8,74,0.00,,,0.00,meteobridge,2014-02-01 17:32:00,
2014-02-01 11:34:00,21.4,14.4,29.83,NW,315,9.2,9.8,74,0.00,,,0.00,meteobridge,2014-02-01 17:34:00,
2014-02-01 11:35:00,21.4,14.4,29.82,North,0,8.3,9.2,74,0.00,,,0.00,meteobridge,2014-02-01 17:35:00,
2014-02-01 11:36:00,21.4,14.4,29.81,North,0,9.2,9.2,74,0.00,,,0.00,meteobridge,2014-02-01 17:36:00,
2014-02-01 11:37:00,21.4,14.4,29.82,North,0,9.2,9.2,74,0.00,,,0.00,meteobridge,2014-02-01 17:37:00,
2014-02-01 11:39:00,21.6,14.5,29.82,North,0,9.2,9.2,74,0.00,,,0.00,meteobridge,2014-02-01 17:39:00,
2014-02-01 11:40:00,21.6,14.5,29.82,North,0,8.3,9.2,74,0.00,,,0.00,meteobridge,2014-02-01 17:40:00,
2014-02-01 11:42:00,21.7,14.7,29.82,NW,315,9.2,9.2,74,0.00,,,0.00,meteobridge,2014-02-01 17:42:00,
2014-02-01 11:43:00,21.7,14.7,29.82,NW,315,9.2,9.2,74,0.00,,,0.00,meteobridge,2014-02-01 17:43:00,
2014-02-01 11:45:00,21.6,14.5,29.82,NW,315,6.9,8.3,74,0.00,,,0.00,meteobridge,2014-02-01 17:45:00,
2014-02-01 11:48:00,21.4,14.4,29.82,North,0,9.2,11.4,74,0.00,,,0.00,meteobridge,2014-02-01 17:48:00,
2014-02-01 11:49:00,21.4,14.4,29.82,NW,315,9.8,11.4,74,0.00,,,0.00,meteobridge,2014-02-01 17:49:00,
2014-02-01 11:50:00,21.4,14.4,29.82,NW,315,7.6,9.8,74,0.00,,,0.00,meteobridge,2014-02-01 17:50:00,
2014-02-01 11:51:00,21.4,14.4,29.82,North,0,8.3,9.8,74,0.00,,,0.00,meteobridge,2014-02-01 17:51:00,
2014-02-01 11:54:00,21.6,14.5,29.82,North,0,9.2,9.2,74,0.00,,,0.00,meteobridge,2014-02-01 17:54:00,
2014-02-01 11:55:00,21.6,14.5,29.82,North,0,6.9,9.2,74,0.00,,,0.00,meteobridge,2014-02-01 17:55:00,
2014-02-01 11:56:00,21.6,14.5,29.82,North,0,9.2,10.7,74,0.00,,,0.00,meteobridge,2014-02-01 17:56:00,
2014-02-01 11:59:00,21.6,14.5,29.82,North,0,9.2,9.2,74,0.00,,,0.00,meteobridge,2014-02-01 17:59:00,
2014-02-01 12:01:00,21.6,14.5,29.82,North,0,7.6,8.3,74,0.00,,,0.00,meteobridge,2014-02-01 18:01:00,
2014-02-01 12:02:00,21.6,14.5,29.81,North,0,9.2,9.2,74,0.00,,,0.00,meteobridge,2014-02-01 18:02:00,
2014-02-01 12:04:00,21.6,14.5,29.81,SW,225,9.8,9.8,74,0.00,,,0.00,meteobridge,2014-02-01 18:04:00,
2014-02-01 12:05:00,21.6,14.5,29.82,North,0,6.9,9.8,74,0.00,,,0.00,meteobridge,2014-02-01 18:05:00,
2014-02-01 12:06:00,21.6,14.5,29.82,North,0,8.3,9.2,74,0.00,,,0.00,meteobridge,2014-02-01 18:06:00,
2014-02-01 12:07:00,21.6,14.5,29.82,North,0,8.3,9.2,74,0.00,,,0.00,meteobridge,2014-02-01 18:07:00,
2014-02-01 12:08:00,21.6,14.5,29.82,North,0,7.6,9.2,74,0.00,,,0.00,meteobridge,2014-02-01 18:08:00,
2014-02-01 12:10:00,21.6,14.5,29.82,North,0,9.8,9.8,74,0.00,,,0.00,meteobridge,2014-02-01 18:10:00,
2014-02-01 12:12:00,21.4,14.4,29.82,North,0,7.6,9.8,74,0.00,,,0.00,meteobridge,2014-02-01 18:12:00,
2014-02-01 12:13:00,21.4,14.4,29.82,WNW,293,7.6,7.6,74,0.00,,,0.00,meteobridge,2014-02-01 18:13:00,
2014-02-01 12:14:00,21.4,14.4,29.83,North,0,8.3,8.3,74,0.00,,,0.00,meteobridge,2014-02-01 18:14:00,
2014-02-01 12:16:00,21.4,14.4,29.83,North,0,9.2,9.2,74,0.00,,,0.00,meteobridge,2014-02-01 18:16:00,
2014-02-01 12:18:00,21.4,14.4,29.83,NW,315,11.4,11.4,74,0.00,,,0.00,meteobridge,2014-02-01 18:18:00,
2014-02-01 12:19:00,21.4,14.4,29.82,NW,315,6.0,11.4,74,0.00,,,0.00,meteobridge,2014-02-01 18:19:00,
2014-02-01 12:20:00,21.4,14.4,29.82,North,0,7.6,7.6,74,0.00,,,0.00,meteobridge,2014-02-01 18:20:00,
2014-02-01 12:21:00,21.4,14.4,29.83,NW,315,9.2,9.2,74,0.00,,,0.00,meteobridge,2014-02-01 18:21:00,
2014-02-01 12:24:00,21.2,14.2,29.82,North,0,8.3,10.7,74,0.00,,,0.00,meteobridge,2014-02-01 18:24:00,
2014-02-01 12:25:00,21.2,14.2,29.82,NE,45,6.0,9.8,74,0.00,,,0.00,meteobridge,2014-02-01 18:25:00,
2014-02-01 12:26:00,21.2,14.2,29.82,NW,315,9.8,9.8,74,0.00,,,0.00,meteobridge,2014-02-01 18:26:00,
2014-02-01 12:28:00,21.4,14.4,29.82,NW,315,10.7,10.7,74,0.00,,,0.00,meteobridge,2014-02-01 18:28:00,
2014-02-01 12:30:00,21.4,14.4,29.82,WNW,293,9.8,10.7,74,0.00,,,0.00,meteobridge,2014-02-01 18:30:00,
2014-02-01 12:31:00,21.4,14.4,29.82,WNW,293,9.8,10.7,74,0.00,,,0.00,meteobridge,2014-02-01 18:31:00,
2014-02-01 12:34:00,21.2,14.2,29.82,North,0,6.0,9.8,74,0.00,,,0.00,meteobridge,2014-02-01 18:34:00,
2014-02-01 12:35:00,21.2,14.2,29.81,NW,315,8.3,8.3,74,0.00,,,0.00,meteobridge,2014-02-01 18:35:00,
2014-02-01 12:38:00,21.7,14.7,29.81,NE,45,9.2,9.2,74,0.00,,,0.00,meteobridge,2014-02-01 18:38:00,
2014-02-01 12:39:00,21.9,14.9,29.81,NE,45,8.3,9.2,74,0.00,,,0.00,meteobridge,2014-02-01 18:39:00,
2014-02-01 12:40:00,21.9,14.9,29.81,NE,45,8.3,9.2,74,0.00,,,0.00,meteobridge,2014-02-01 18:40:00,
2014-02-01 12:41:00,22.1,15.1,29.81,North,0,9.2,9.2,74,0.00,,,0.00,meteobridge,2014-02-01 18:41:00,
2014-02-01 12:44:00,22.3,15.3,29.82,NW,315,11.4,11.4,74,0.00,,,0.00,meteobridge,2014-02-01 18:44:00,
2014-02-01 12:45:00,22.1,15.1,29.82,North,0,6.9,11.4,74,0.00,,,0.00,meteobridge,2014-02-01 18:45:00,
2014-02-01 12:46:00,22.1,15.1,29.82,NW,315,3.8,11.4,74,0.00,,,0.00,meteobridge,2014-02-01 18:46:00,
2014-02-01 12:47:00,22.1,15.1,29.81,NW,315,6.9,6.9,74,0.00,,,0.00,meteobridge,2014-02-01 18:47:00,
2014-02-01 12:50:00,22.3,15.3,29.82,NW,315,8.3,8.3,74,0.00,,,0.00,meteobridge,2014-02-01 18:50:00,
2014-02-01 12:51:00,22.3,15.3,29.83,West,270,8.3,8.3,74,0.00,,,0.00,meteobridge,2014-02-01 18:51:00,
2014-02-01 12:52:00,22.1,15.1,29.83,NW,315,6.0,9.2,74,0.00,,,0.00,meteobridge,2014-02-01 18:52:00,
2014-02-01 12:55:00,21.7,14.4,29.82,NW,315,7.6,8.3,73,0.00,,,0.00,meteobridge,2014-02-01 18:55:00,
2014-02-01 12:56:00,21.6,14.2,29.83,NW,315,6.9,8.3,73,0.00,,,0.00,meteobridge,2014-02-01 18:56:00,
2014-02-01 12:57:00,21.6,14.2,29.83,NW,315,9.8,9.8,73,0.00,,,0.00,meteobridge,2014-02-01 18:57:00,
2014-02-01 12:58:00,21.4,14.0,29.83,NW,315,10.7,10.7,73,0.00,,,0.00,meteobridge,2014-02-01 18:58:00,
2014-02-01 13:01:00,21.2,13.6,29.84,NW,315,9.2,11.4,72,0.00,,,0.00,meteobridge,2014-02-01 19:01:00,
2014-02-01 13:02:00,21.2,13.8,29.84,NW,315,10.7,10.7,73,0.00,,,0.00,meteobridge,2014-02-01 19:02:00,
2014-02-01 13:03:00,21.0,14.0,29.83,NW,315,9.8,10.7,74,0.00,,,0.00,meteobridge,2014-02-01 19:03:00,
2014-02-01 13:04:00,21.0,14.0,29.83,NW,315,9.8,10.7,74,0.00,,,0.00,meteobridge,2014-02-01 19:04:00,
2014-02-01 13:06:00,21.2,13.8,29.83,NW,315,10.7,10.7,73,0.00,,,0.00,meteobridge,2014-02-01 19:06:00,
2014-02-01 13:08:00,21.4,14.0,29.82,North,0,8.3,10.7,73,0.00,,,0.00,meteobridge,2014-02-01 19:08:00,
2014-02-01 13:09:00,21.6,14.2,29.82,NW,315,9.2,26.6,73,0.00,,,0.00,meteobridge,2014-02-01 19:09:00,
2014-02-01 13:12:00,21.7,14.7,29.83,North,0,13.6,13.6,74,0.00,,,0.00,meteobridge,2014-02-01 19:12:00,
2014-02-01 13:13:00,21.7,14.7,29.82,North,0,11.4,13.6,74,0.00,,,0.00,meteobridge,2014-02-01 19:13:00,
2014-02-01 13:14:00,21.9,14.5,29.82,NW,315,7.6,11.4,73,0.00,,,0.00,meteobridge,2014-02-01 19:14:00,
2014-02-01 13:17:00,22.1,14.7,29.83,NW,315,10.7,10.7,73,0.00,,,0.00,meteobridge,2014-02-01 19:17:00,
2014-02-01 13:18:00,22.1,14.7,29.83,NW,315,10.7,10.7,73,0.00,,,0.00,meteobridge,2014-02-01 19:18:00,
2014-02-01 13:22:00,22.3,14.9,29.83,NW,315,10.7,10.7,73,0.00,,,0.00,meteobridge,2014-02-01 19:22:00,
2014-02-01 13:23:00,22.1,14.7,29.82,NW,315,9.2,10.7,73,0.00,,,0.00,meteobridge,2014-02-01 19:23:00,
2014-02-01 13:24:00,22.1,14.7,29.83,NW,315,9.2,11.4,73,0.00,,,0.00,meteobridge,2014-02-01 19:24:00,
2014-02-01 13:25:00,22.1,14.7,29.83,NW,315,6.9,11.4,73,0.00,,,0.00,meteobridge,2014-02-01 19:25:00,
2014-02-01 13:27:00,22.1,14.7,29.83,NW,315,9.8,9.8,73,0.00,,,0.00,meteobridge,2014-02-01 19:27:00,
2014-02-01 13:29:00,22.1,14.7,29.83,WNW,293,9.2,12.1,73,0.00,,,0.00,meteobridge,2014-02-01 19:29:00,
2014-02-01 13:30:00,22.1,14.7,29.83,NW,315,12.1,12.1,73,0.00,,,0.00,meteobridge,2014-02-01 19:30:00,
2014-02-01 13:31:00,22.1,14.7,29.83,NW,315,12.1,12.1,73,0.00,,,0.00,meteobridge,2014-02-01 19:31:00,
2014-02-01 13:32:00,22.1,14.5,29.84,NW,315,11.4,12.1,72,0.00,,,0.00,meteobridge,2014-02-01 19:32:00,
2014-02-01 13:34:00,22.1,14.5,29.84,NW,315,10.7,12.1,72,0.00,,,0.00,meteobridge,2014-02-01 19:34:00,
2014-02-01 13:35:00,22.1,14.5,29.83,NW,315,9.8,12.1,72,0.00,,,0.00,meteobridge,2014-02-01 19:35:00,
2014-02-01 13:36:00,22.3,14.7,29.84,North,0,12.1,12.1,72,0.00,,,0.00,meteobridge,2014-02-01 19:36:00,
2014-02-01 13:37:00,22.3,14.7,29.84,NW,315,11.4,12.1,72,0.00,,,0.00,meteobridge,2014-02-01 19:37:00,
2014-02-01 13:38:00,22.3,14.7,29.84,NW,315,8.3,12.1,72,0.00,,,0.00,meteobridge,2014-02-01 19:38:00,
2014-02-01 13:39:00,22.3,14.7,29.84,NW,315,6.9,8.3,72,0.00,,,0.00,meteobridge,2014-02-01 19:39:00,
2014-02-01 13:40:00,22.5,14.7,29.84,NW,315,9.2,9.2,72,0.00,,,0.00,meteobridge,2014-02-01 19:40:00,
2014-02-01 13:42:00,22.5,14.7,29.84,West,270,8.3,9.2,72,0.00,,,0.00,meteobridge,2014-02-01 19:42:00,
2014-02-01 13:44:00,22.6,14.9,29.85,NW,315,9.2,9.2,72,0.00,,,0.00,meteobridge,2014-02-01 19:44:00,
2014-02-01 13:45:00,22.6,14.9,29.85,NW,315,12.1,12.1,72,0.00,,,0.00,meteobridge,2014-02-01 19:45:00,
2014-02-01 13:46:00,22.6,14.9,29.84,NW,315,9.2,12.1,72,0.00,,,0.00,meteobridge,2014-02-01 19:46:00,
2014-02-01 13:48:00,22.6,14.9,29.84,NW,315,8.3,10.7,72,0.00,,,0.00,meteobridge,2014-02-01 19:48:00,
2014-02-01 13:51:00,22.6,14.9,29.84,NW,315,9.8,11.4,72,0.00,,,0.00,meteobridge,2014-02-01 19:51:00,
2014-02-01 13:52:00,22.6,14.9,29.84,NW,315,10.7,10.7,72,0.00,,,0.00,meteobridge,2014-02-01 19:52:00,
2014-02-01 13:55:00,22.6,14.9,29.85,NW,315,11.4,11.4,72,0.00,,,0.00,meteobridge,2014-02-01 19:55:00,
2014-02-01 13:56:00,22.8,15.1,29.85,NW,315,9.8,12.1,72,0.00,,,0.00,meteobridge,2014-02-01 19:56:00,
2014-02-01 13:57:00,22.8,15.1,29.85,NW,315,9.8,12.1,72,0.00,,,0.00,meteobridge,2014-02-01 19:57:00,
2014-02-01 13:58:00,22.8,15.1,29.85,NW,315,10.7,10.7,72,0.00,,,0.00,meteobridge,2014-02-01 19:58:00,
2014-02-01 13:59:00,23.0,15.1,29.84,NW,315,7.6,10.7,71,0.00,,,0.00,meteobridge,2014-02-01 19:59:00,
2014-02-01 14:02:00,23.2,15.3,29.84,NW,315,7.6,7.6,71,0.00,,,0.00,meteobridge,2014-02-01 20:02:00,
2014-02-01 14:03:00,23.4,15.4,29.84,NW,315,7.6,7.6,71,0.00,,,0.00,meteobridge,2014-02-01 20:03:00,
2014-02-01 14:05:00,23.4,15.4,29.85,North,0,8.3,8.3,71,0.00,,,0.00,meteobridge,2014-02-01 20:05:00,
2014-02-01 14:06:00,23.5,15.4,29.84,North,0,7.6,8.3,71,0.00,,,0.00,meteobridge,2014-02-01 20:06:00,
2014-02-01 14:08:00,23.5,15.3,29.84,NW,315,6.9,6.9,70,0.00,,,0.00,meteobridge,2014-02-01 20:08:00,
2014-02-01 14:09:00,23.7,15.4,29.84,North,0,6.9,6.9,70,0.00,,,0.00,meteobridge,2014-02-01 20:09:00,
2014-02-01 14:10:00,23.7,15.4,29.84,North,0,7.6,7.6,70,0.00,,,0.00,meteobridge,2014-02-01 20:10:00,
2014-02-01 14:11:00,23.7,15.4,29.85,NW,315,7.6,7.6,70,0.00,,,0.00,meteobridge,2014-02-01 20:11:00,
2014-02-01 14:12:00,23.7,15.4,29.84,North,0,7.6,7.6,70,0.00,,,0.00,meteobridge,2014-02-01 20:12:00,
2014-02-01 14:13:00,23.7,15.4,29.85,NW,315,9.2,9.2,70,0.00,,,0.00,meteobridge,2014-02-01 20:13:00,
2014-02-01 14:14:00,23.7,15.1,29.85,NW,315,7.6,9.2,69,0.00,,,0.00,meteobridge,2014-02-01 20:14:00,
2014-02-01 14:15:00,23.7,15.1,29.85,NW,315,7.6,9.2,69,0.00,,,0.00,meteobridge,2014-02-01 20:15:00,
2014-02-01 14:17:00,23.7,15.1,29.85,West,270,8.3,8.3,69,0.00,,,0.00,meteobridge,2014-02-01 20:17:00,
2014-02-01 14:18:00,23.7,15.1,29.85,West,270,9.8,9.8,69,0.00,,,0.00,meteobridge,2014-02-01 20:18:00,
2014-02-01 14:21:00,23.7,15.1,29.85,NW,315,7.6,9.2,69,0.00,,,0.00,meteobridge,2014-02-01 20:21:00,
2014-02-01 14:22:00,23.7,15.1,29.85,NW,315,6.9,8.3,69,0.00,,,0.00,meteobridge,2014-02-01 20:22:00,
2014-02-01 14:23:00,23.7,15.1,29.85,NW,315,8.3,8.3,69,0.00,,,0.00,meteobridge,2014-02-01 20:23:00,
2014-02-01 14:26:00,23.7,15.1,29.85,NW,315,6.9,9.2,69,0.00,,,0.00,meteobridge,2014-02-01 20:26:00,
2014-02-01 14:27:00,23.7,15.1,29.85,North,0,7.6,8.3,69,0.00,,,0.00,meteobridge,2014-02-01 20:27:00,
2014-02-01 14:28:00,23.9,15.3,29.84,North,0,9.8,9.8,69,0.00,,,0.00,meteobridge,2014-02-01 20:28:00,
2014-02-01 14:29:00,23.9,15.3,29.85,NW,315,6.9,9.8,69,0.00,,,0.00,meteobridge,2014-02-01 20:29:00,
2014-02-01 14:31:00,24.3,15.6,29.84,NW,315,8.3,8.3,69,0.00,,,0.00,meteobridge,2014-02-01 20:31:00,
2014-02-01 14:33:00,24.3,15.6,29.85,NW,315,9.2,9.2,69,0.00,,,0.00,meteobridge,2014-02-01 20:33:00,
2014-02-01 14:34:00,24.3,15.6,29.85,NW,315,7.6,9.2,69,0.00,,,0.00,meteobridge,2014-02-01 20:34:00,
2014-02-01 14:35:00,24.3,15.6,29.85,NW,315,7.6,9.2,69,0.00,,,0.00,meteobridge,2014-02-01 20:35:00,
2014-02-01 14:36:00,24.3,15.6,29.84,NW,315,9.2,9.2,69,0.00,,,0.00,meteobridge,2014-02-01 20:36:00,
2014-02-01 14:38:00,24.4,15.8,29.85,North,0,7.6,7.6,69,0.00,,,0.00,meteobridge,2014-02-01 20:38:00,
2014-02-01 14:40:00,24.6,16.0,29.85,NW,315,8.3,8.3,69,0.00,,,0.00,meteobridge,2014-02-01 20:40:00,
2014-02-01 14:41:00,24.6,15.6,29.85,North,0,8.3,8.3,68,0.00,,,0.00,meteobridge,2014-02-01 20:41:00,
2014-02-01 14:42:00,24.6,15.6,29.85,North,0,9.8,9.8,68,0.00,,,0.00,meteobridge,2014-02-01 20:42:00,
2014-02-01 14:43:00,24.6,15.6,29.85,NW,315,9.2,9.8,68,0.00,,,0.00,meteobridge,2014-02-01 20:43:00,
2014-02-01 14:45:00,24.4,15.4,29.85,WNW,293,11.4,11.4,68,0.00,,,0.00,meteobridge,2014-02-01 20:45:00,
2014-02-01 14:46:00,24.4,15.4,29.85,WNW,293,11.4,11.4,68,0.00,,,0.00,meteobridge,2014-02-01 20:46:00,
2014-02-01 14:47:00,24.4,15.4,29.85,NW,315,8.3,12.1,68,0.00,,,0.00,meteobridge,2014-02-01 20:47:00,
2014-02-01 14:48:00,24.4,15.4,29.85,North,0,9.2,12.1,68,0.00,,,0.00,meteobridge,2014-02-01 20:48:00,
2014-02-01 14:51:00,24.4,15.4,29.85,North,0,8.3,12.1,68,0.00,,,0.00,meteobridge,2014-02-01 20:51:00,
2014-02-01 14:52:00,24.4,15.4,29.85,NW,315,9.8,9.8,68,0.00,,,0.00,meteobridge,2014-02-01 20:52:00,
2014-02-01 14:53:00,24.4,15.4,29.85,North,0,8.3,9.8,68,0.00,,,0.00,meteobridge,2014-02-01 20:53:00,
2014-02-01 14:54:00,24.6,15.6,29.85,North,0,8.3,9.8,68,0.00,,,0.00,meteobridge,2014-02-01 20:54:00,
2014-02-01 14:57:00,24.6,15.6,29.85,North,0,9.2,9.2,68,0.00,,,0.00,meteobridge,2014-02-01 20:57:00,
2014-02-01 14:58:00,24.6,15.6,29.85,WNW,293,12.1,12.1,68,0.00,,,0.00,meteobridge,2014-02-01 20:58:00,
2014-02-01 14:59:00,24.6,15.6,29.85,North,0,14.5,14.5,68,0.00,,,0.00,meteobridge,2014-02-01 20:59:00,
2014-02-01 15:00:00,24.6,15.6,29.85,NW,315,9.8,14.5,68,0.00,,,0.00,meteobridge,2014-02-01 21:00:00,
2014-02-01 15:02:00,24.6,15.6,29.85,North,0,9.8,13.0,68,0.00,,,0.00,meteobridge,2014-02-01 21:02:00,
2014-02-01 15:03:00,24.6,15.6,29.86,North,0,13.0,13.0,68,0.00,,,0.00,meteobridge,2014-02-01 21:03:00,
2014-02-01 15:05:00,24.4,15.4,29.86,WNW,293,13.0,13.0,68,0.00,,,0.00,meteobridge,2014-02-01 21:05:00,
2014-02-01 15:06:00,24.4,15.4,29.87,North,0,10.7,13.0,68,0.00,,,0.00,meteobridge,2014-02-01 21:06:00,
2014-02-01 15:08:00,24.4,15.4,29.87,North,0,11.4,11.4,68,0.00,,,0.00,meteobridge,2014-02-01 21:08:00,
2014-02-01 15:09:00,24.3,15.3,29.86,North,0,9.8,11.4,68,0.00,,,0.00,meteobridge,2014-02-01 21:09:00,
2014-02-01 15:10:00,24.3,15.3,29.87,North,0,9.2,9.8,68,0.00,,,0.00,meteobridge,2014-02-01 21:10:00,
2014-02-01 15:13:00,24.3,15.3,29.87,North,0,9.8,9.8,68,0.00,,,0.00,meteobridge,2014-02-01 21:13:00,
2014-02-01 15:14:00,24.3,15.3,29.87,North,0,7.6,9.8,68,0.00,,,0.00,meteobridge,2014-02-01 21:14:00,
2014-02-01 15:15:00,24.3,15.6,29.87,North,0,8.3,15.9,69,0.00,,,0.00,meteobridge,2014-02-01 21:15:00,
2014-02-01 15:16:00,24.3,15.6,29.87,North,0,6.0,9.2,69,0.00,,,0.00,meteobridge,2014-02-01 21:16:00,
2014-02-01 15:18:00,24.4,15.8,29.87,NW,315,10.7,10.7,69,0.00,,,0.00,meteobridge,2014-02-01 21:18:00,
2014-02-01 15:19:00,24.4,15.8,29.88,NW,315,7.6,10.7,69,0.00,,,0.00,meteobridge,2014-02-01 21:19:00,
2014-02-01 15:21:00,24.4,15.8,29.87,North,0,8.3,8.3,69,0.00,,,0.00,meteobridge,2014-02-01 21:21:00,
2014-02-01 15:22:00,24.4,15.8,29.87,North,0,6.9,8.3,69,0.00,,,0.00,meteobridge,2014-02-01 21:22:00,
2014-02-01 15:23:00,24.4,15.8,29.88,NW,315,8.3,8.3,69,0.00,,,0.00,meteobridge,2014-02-01 21:23:00,
2014-02-01 15:24:00,24.3,15.6,29.87,NW,315,11.4,12.1,69,0.00,,,0.00,meteobridge,2014-02-01 21:24:00,
2014-02-01 15:25:00,24.3,15.6,29.88,North,0,9.2,12.1,69,0.00,,,0.00,meteobridge,2014-02-01 21:25:00,
2014-02-01 15:27:00,24.1,15.4,29.88,NW,315,10.7,11.4,69,0.00,,,0.00,meteobridge,2014-02-01 21:27:00,
2014-02-01 15:28:00,24.1,15.4,29.88,NW,315,12.1,12.1,69,0.00,,,0.00,meteobridge,2014-02-01 21:28:00,
2014-02-01 15:29:00,24.1,15.4,29.88,North,0,9.2,12.1,69,0.00,,,0.00,meteobridge,2014-02-01 21:29:00,
2014-02-01 15:30:00,24.1,15.4,29.88,North,0,13.6,13.6,69,0.00,,,0.00,meteobridge,2014-02-01 21:30:00,
2014-02-01 15:32:00,23.9,15.3,29.87,WNW,293,14.5,14.5,69,0.00,,,0.00,meteobridge,2014-02-01 21:32:00,
2014-02-01 15:33:00,23.9,15.3,29.88,North,0,12.1,14.5,69,0.00,,,0.00,meteobridge,2014-02-01 21:33:00,
2014-02-01 15:34:00,23.9,15.6,29.88,North,0,15.2,15.2,70,0.00,,,0.00,meteobridge,2014-02-01 21:34:00,
2014-02-01 15:35:00,23.9,15.6,29.88,North,0,15.2,15.2,70,0.00,,,0.00,meteobridge,2014-02-01 21:35:00,
2014-02-01 15:37:00,23.9,15.6,29.88,NW,315,13.6,13.6,70,0.00,,,0.00,meteobridge,2014-02-01 21:37:00,
2014-02-01 15:39:00,23.7,15.4,29.88,NW,315,13.0,13.6,70,0.00,,,0.00,meteobridge,2014-02-01 21:39:00,
2014-02-01 15:40:00,23.7,15.4,29.88,NW,315,14.5,14.5,70,0.00,,,0.00,meteobridge,2014-02-01 21:40:00,
2014-02-01 15:41:00,23.7,15.4,29.87,NW,315,9.2,14.5,70,0.00,,,0.00,meteobridge,2014-02-01 21:41:00,
2014-02-01 15:43:00,23.7,15.6,29.87,NW,315,8.3,9.8,71,0.00,,,0.00,meteobridge,2014-02-01 21:43:00,
2014-02-01 15:44:00,23.7,15.6,29.88,NW,315,9.8,9.8,71,0.00,,,0.00,meteobridge,2014-02-01 21:44:00,
2014-02-01 15:45:00,23.7,15.6,29.88,North,0,10.7,10.7,71,0.00,,,0.00,meteobridge,2014-02-01 21:45:00,
2014-02-01 15:46:00,23.7,15.6,29.88,WNW,293,9.8,10.7,71,0.00,,,0.00,meteobridge,2014-02-01 21:46:00,
2014-02-01 15:47:00,23.7,15.6,29.88,North,0,8.3,10.7,71,0.00,,,0.00,meteobridge,2014-02-01 21:47:00,
2014-02-01 15:50:00,23.7,15.6,29.88,NW,315,11.4,11.4,71,0.00,,,0.00,meteobridge,2014-02-01 21:50:00,
2014-02-01 15:51:00,23.7,15.6,29.88,NW,315,9.8,11.4,71,0.00,,,0.00,meteobridge,2014-02-01 21:51:00,
2014-02-01 15:52:00,23.7,15.6,29.88,NW,315,6.9,9.8,71,0.00,,,0.00,meteobridge,2014-02-01 21:52:00,
2014-02-01 15:53:00,23.7,15.6,29.88,NW,315,9.2,9.8,71,0.00,,,0.00,meteobridge,2014-02-01 21:53:00,
2014-02-01 15:56:00,23.7,15.6,29.88,North,0,7.6,7.6,71,0.00,,,0.00,meteobridge,2014-02-01 21:56:00,
2014-02-01 15:57:00,23.9,16.2,29.88,North,0,5.4,7.6,72,0.00,,,0.00,meteobridge,2014-02-01 21:57:00,
2014-02-01 15:58:00,23.9,16.2,29.88,North,0,9.2,15.9,72,0.00,,,0.00,meteobridge,2014-02-01 21:58:00,
2014-02-01 16:00:00,23.9,16.2,29.88,North,0,7.6,8.3,72,0.00,,,0.00,meteobridge,2014-02-01 22:00:00,
2014-02-01 16:01:00,23.9,16.2,29.89,NW,315,8.3,8.3,72,0.00,,,0.00,meteobridge,2014-02-01 22:01:00,
2014-02-01 16:02:00,23.9,16.2,29.89,North,0,5.4,8.3,72,0.00,,,0.00,meteobridge,2014-02-01 22:02:00,
2014-02-01 16:03:00,23.9,16.2,29.88,North,0,6.9,8.3,72,0.00,,,0.00,meteobridge,2014-02-01 22:03:00,
2014-02-01 16:05:00,23.9,16.2,29.88,North,0,6.9,9.8,72,0.00,,,0.00,meteobridge,2014-02-01 22:05:00,
2014-02-01 16:07:00,23.9,16.2,29.88,North,0,7.6,8.3,72,0.00,,,0.00,meteobridge,2014-02-01 22:07:00,
2014-02-01 16:08:00,23.9,16.2,29.88,NW,315,6.0,8.3,72,0.00,,,0.00,meteobridge,2014-02-01 22:08:00,
2014-02-01 16:09:00,23.9,16.2,29.88,West,270,7.6,7.6,72,0.00,,,0.00,meteobridge,2014-02-01 22:09:00,
2014-02-01 16:12:00,23.9,16.2,29.88,NW,315,11.4,11.4,72,0.00,,,0.00,meteobridge,2014-02-01 22:12:00,
2014-02-01 16:13:00,23.9,15.8,29.89,North,0,9.8,11.4,71,0.00,,,0.00,meteobridge,2014-02-01 22:13:00,
2014-02-01 16:14:00,23.9,15.8,29.89,North,0,9.8,11.4,71,0.00,,,0.00,meteobridge,2014-02-01 22:14:00,
2014-02-01 16:18:00,23.7,15.6,29.90,WNW,293,13.0,13.0,71,0.00,,,0.00,meteobridge,2014-02-01 22:18:00,
2014-02-01 16:19:00,23.7,15.6,29.90,NW,315,11.4,13.0,71,0.00,,,0.00,meteobridge,2014-02-01 22:19:00,
2014-02-01 16:20:00,23.7,15.4,29.89,NW,315,9.8,13.0,70,0.00,,,0.00,meteobridge,2014-02-01 22:20:00,
2014-02-01 16:21:00,23.5,15.3,29.90,North,0,9.8,13.0,70,0.00,,,0.00,meteobridge,2014-02-01 22:21:00,
2014-02-01 16:24:00,23.5,15.3,29.89,North,0,9.2,9.8,70,0.00,,,0.00,meteobridge,2014-02-01 22:24:00,
2014-02-01 16:27:00,23.5,15.3,29.90,North,0,9.2,9.2,70,0.00,,,0.00,meteobridge,2014-02-01 22:27:00,
2014-02-01 16:28:00,23.5,15.3,29.90,NE,45,8.3,9.2,70,0.00,,,0.00,meteobridge,2014-02-01 22:28:00,
2014-02-01 16:29:00,23.5,15.3,29.90,West,270,9.8,9.8,70,0.00,,,0.00,meteobridge,2014-02-01 22:29:00,
2014-02-01 16:30:00,23.5,15.3,29.90,WNW,293,7.6,9.8,70,0.00,,,0.00,meteobridge,2014-02-01 22:30:00,
2014-02-01 16:31:00,23.5,15.3,29.90,NW,315,6.9,9.8,70,0.00,,,0.00,meteobridge,2014-02-01 22:31:00,
2014-02-01 16:33:00,23.4,15.1,29.90,NW,315,10.7,10.7,70,0.00,,,0.00,meteobridge,2014-02-01 22:33:00,
2014-02-01 16:34:00,23.4,15.1,29.90,NW,315,7.6,10.7,70,0.00,,,0.00,meteobridge,2014-02-01 22:34:00,
2014-02-01 16:35:00,23.4,15.1,29.90,NW,315,7.6,10.7,70,0.00,,,0.00,meteobridge,2014-02-01 22:35:00,
2014-02-01 16:36:00,23.4,15.4,29.90,NW,315,9.2,9.2,71,0.00,,,0.00,meteobridge,2014-02-01 22:36:00,
2014-02-01 16:38:00,23.4,15.4,29.90,North,0,9.8,10.7,71,0.00,,,0.00,meteobridge,2014-02-01 22:38:00,
2014-02-01 16:40:00,23.4,15.4,29.90,North,0,9.2,9.8,71,0.00,,,0.00,meteobridge,2014-02-01 22:40:00,
2014-02-01 16:41:00,23.4,15.4,29.90,North,0,8.3,9.2,71,0.00,,,0.00,meteobridge,2014-02-01 22:41:00,
2014-02-01 16:42:00,23.4,15.4,29.90,North,0,8.3,9.2,71,0.00,,,0.00,meteobridge,2014-02-01 22:42:00,
2014-02-01 16:43:00,23.4,15.4,29.91,North,0,5.4,8.3,71,0.00,,,0.00,meteobridge,2014-02-01 22:43:00,
2014-02-01 16:44:00,23.4,15.4,29.91,West,270,6.9,9.2,71,0.00,,,0.00,meteobridge,2014-02-01 22:44:00,
2014-02-01 16:45:00,23.4,15.6,29.90,North,0,9.2,10.7,72,0.00,,,0.00,meteobridge,2014-02-01 22:45:00,
2014-02-01 16:46:00,23.4,15.6,29.90,North,0,9.2,10.7,72,0.00,,,0.00,meteobridge,2014-02-01 22:46:00,
2014-02-01 16:47:00,23.4,15.6,29.90,North,0,7.6,9.2,72,0.00,,,0.00,meteobridge,2014-02-01 22:47:00,
2014-02-01 16:48:00,23.4,15.6,29.90,North,0,10.7,10.7,72,0.00,,,0.00,meteobridge,2014-02-01 22:48:00,
2014-02-01 16:49:00,23.4,15.6,29.91,NW,315,9.2,10.7,72,0.00,,,0.00,meteobridge,2014-02-01 22:49:00,
2014-02-01 16:50:00,23.4,15.6,29.91,NW,315,9.2,10.7,72,0.00,,,0.00,meteobridge,2014-02-01 22:50:00,
2014-02-01 16:52:00,23.2,15.4,29.91,North,0,10.7,12.1,72,0.00,,,0.00,meteobridge,2014-02-01 22:52:00,
2014-02-01 16:53:00,23.2,15.4,29.91,North,0,7.6,10.7,72,0.00,,,0.00,meteobridge,2014-02-01 22:53:00,
2014-02-01 16:54:00,23.2,15.4,29.91,NW,315,8.3,10.7,72,0.00,,,0.00,meteobridge,2014-02-01 22:54:00,
2014-02-01 16:55:00,23.2,15.4,29.91,North,0,9.8,10.7,72,0.00,,,0.00,meteobridge,2014-02-01 22:55:00,
2014-02-01 16:56:00,23.2,15.4,29.91,NW,315,9.8,10.7,72,0.00,,,0.00,meteobridge,2014-02-01 22:56:00,
2014-02-01 16:58:00,23.2,15.8,29.90,NW,315,7.6,9.8,73,0.00,,,0.00,meteobridge,2014-02-01 22:58:00,
2014-02-01 17:00:00,23.2,15.8,29.91,North,0,9.2,9.2,73,0.00,,,0.00,meteobridge,2014-02-01 23:00:00,
2014-02-01 17:01:00,23.2,15.8,29.91,North,0,9.2,9.2,73,0.00,,,0.00,meteobridge,2014-02-01 23:01:00,
2014-02-01 17:02:00,23.2,15.8,29.91,North,0,8.3,9.2,73,0.00,,,0.00,meteobridge,2014-02-01 23:02:00,
2014-02-01 17:03:00,23.2,15.8,29.91,North,0,11.4,11.4,73,0.00,,,0.00,meteobridge,2014-02-01 23:03:00,
2014-02-01 17:06:00,23.2,15.8,29.91,NE,45,12.1,12.1,73,0.00,,,0.00,meteobridge,2014-02-01 23:06:00,
2014-02-01 17:07:00,23.2,15.8,29.91,North,0,8.3,12.1,73,0.00,,,0.00,meteobridge,2014-02-01 23:07:00,
2014-02-01 17:09:00,23.2,15.8,29.91,NW,315,11.4,13.0,73,0.00,,,0.00,meteobridge,2014-02-01 23:09:00,
2014-02-01 17:10:00,23.0,15.6,29.91,NW,315,8.3,13.0,73,0.00,,,0.00,meteobridge,2014-02-01 23:10:00,
2014-02-01 17:12:00,23.0,15.6,29.92,WNW,293,13.6,13.6,73,0.00,,,0.00,meteobridge,2014-02-01 23:12:00,
2014-02-01 17:13:00,23.0,15.6,29.91,NW,315,9.8,13.6,73,0.00,,,0.00,meteobridge,2014-02-01 23:13:00,
2014-02-01 17:16:00,23.0,15.6,29.92,North,0,9.8,10.7,73,0.00,,,0.00,meteobridge,2014-02-01 23:16:00,
2014-02-01 17:17:00,23.0,15.6,29.93,North,0,14.5,14.5,73,0.00,,,0.00,meteobridge,2014-02-01 23:17:00,
2014-02-01 17:18:00,23.0,15.6,29.92,North,0,11.4,14.5,73,0.00,,,0.00,meteobridge,2014-02-01 23:18:00,
2014-02-01 17:19:00,23.0,15.6,29.93,North,0,9.2,11.4,73,0.00,,,0.00,meteobridge,2014-02-01 23:19:00,
2014-02-01 17:22:00,23.0,15.6,29.92,NW,315,9.2,11.4,73,0.00,,,0.00,meteobridge,2014-02-01 23:22:00,
2014-02-01 17:23:00,23.0,15.6,29.92,North,0,10.7,10.7,73,0.00,,,0.00,meteobridge,2014-02-01 23:23:00,
2014-02-01 17:24:00,23.0,15.6,29.93,NE,45,7.6,10.7,73,0.00,,,0.00,meteobridge,2014-02-01 23:24:00,
2014-02-01 17:27:00,23.0,15.6,29.93,North,0,9.8,9.8,73,0.00,,,0.00,meteobridge,2014-02-01 23:27:00,
2014-02-01 17:29:00,22.8,15.8,29.93,NW,315,7.6,9.8,74,0.00,,,0.00,meteobridge,2014-02-01 23:29:00,
2014-02-01 17:30:00,22.8,15.8,29.93,WNW,293,9.8,9.8,74,0.00,,,0.00,meteobridge,2014-02-01 23:30:00,
2014-02-01 17:32:00,22.8,15.8,29.93,WNW,293,6.9,7.6,74,0.00,,,0.00,meteobridge,2014-02-01 23:32:00,
2014-02-01 17:33:00,22.8,15.8,29.93,NW,315,7.6,7.6,74,0.00,,,0.00,meteobridge,2014-02-01 23:33:00,
2014-02-01 17:35:00,22.8,15.8,29.93,NW,315,9.2,9.2,74,0.00,,,0.00,meteobridge,2014-02-01 23:35:00,
2014-02-01 17:37:00,23.0,15.6,29.93,North,0,7.6,9.2,73,0.00,,,0.00,meteobridge,2014-02-01 23:37:00,
2014-02-01 17:38:00,23.0,15.6,29.93,NW,315,9.8,9.8,73,0.00,,,0.00,meteobridge,2014-02-01 23:38:00,
2014-02-01 17:40:00,23.0,15.6,29.94,NE,45,7.6,7.6,73,0.00,,,0.00,meteobridge,2014-02-01 23:40:00,
2014-02-01 17:42:00,23.0,15.6,29.94,North,0,6.9,9.8,73,0.00,,,0.00,meteobridge,2014-02-01 23:42:00,
2014-02-01 17:43:00,23.0,15.6,29.94,NW,315,8.3,9.8,73,0.00,,,0.00,meteobridge,2014-02-01 23:43:00,
2014-02-01 17:47:00,23.0,15.6,29.94,North,0,12.1,12.1,73,0.00,,,0.00,meteobridge,2014-02-01 23:47:00,
2014-02-01 17:48:00,23.0,15.6,29.94,NNW,338,9.8,12.1,73,0.00,,,0.00,meteobridge,2014-02-01 23:48:00,
2014-02-01 17:49:00,23.0,15.6,29.94,NW,315,10.7,10.7,73,0.00,,,0.00,meteobridge,2014-02-01 23:49:00,
2014-02-01 17:50:00,23.0,15.6,29.93,North,0,10.7,10.7,73,0.00,,,0.00,meteobridge,2014-02-01 23:50:00,
2014-02-01 17:53:00,23.0,15.3,29.94,North,0,9.2,10.7,72,0.00,,,0.00,meteobridge,2014-02-01 23:53:00,
2014-02-01 17:54:00,22.8,15.4,29.94,NW,315,8.3,10.7,73,0.00,,,0.00,meteobridge,2014-02-01 23:54:00,
2014-02-01 17:56:00,22.8,15.4,29.94,North,0,10.7,13.0,73,0.00,,,0.00,meteobridge,2014-02-01 23:56:00,
2014-02-01 17:57:00,22.8,15.4,29.94,North,0,11.4,13.0,73,0.00,,,0.00,meteobridge,2014-02-01 23:57:00,
2014-02-01 17:58:00,22.8,15.1,29.94,North,0,7.6,11.4,72,0.00,,,0.00,meteobridge,2014-02-01 23:58:00,
2014-02-01 17:59:00,22.8,15.1,29.95,North,0,10.7,11.4,72,0.00,,,0.00,meteobridge,2014-02-01 23:59:00,
2014-02-01 18:01:00,22.8,15.1,29.94,North,0,11.4,12.1,72,0.00,,,0.00,meteobridge,2014-02-02 00:01:00,
2014-02-01 18:04:00,22.8,15.1,29.95,NW,315,9.8,12.1,72,0.00,,,0.00,meteobridge,2014-02-02 00:04:00,
2014-02-01 18:05:00,22.8,14.9,29.95,NW,315,11.4,11.4,71,0.00,,,0.00,meteobridge,2014-02-02 00:05:00,
2014-02-01 18:06:00,22.8,14.9,29.95,NW,315,9.8,11.4,71,0.00,,,0.00,meteobridge,2014-02-02 00:06:00,
2014-02-01 18:07:00,22.8,14.9,29.95,NW,315,9.8,9.8,71,0.00,,,0.00,meteobridge,2014-02-02 00:07:00,
2014-02-01 18:08:00,22.8,14.9,29.95,NW,315,9.2,9.8,71,0.00,,,0.00,meteobridge,2014-02-02 00:08:00,
2014-02-01 18:10:00,22.8,14.9,29.95,NW,315,9.2,11.4,71,0.00,,,0.00,meteobridge,2014-02-02 00:10:00,
2014-02-01 18:11:00,22.8,14.9,29.96,NW,315,9.8,9.8,71,0.00,,,0.00,meteobridge,2014-02-02 00:11:00,
2014-02-01 18:12:00,22.6,14.7,29.95,North,0,8.3,9.8,71,0.00,,,0.00,meteobridge,2014-02-02 00:12:00,
2014-02-01 18:14:00,22.6,14.7,29.95,NW,315,7.6,9.8,71,0.00,,,0.00,meteobridge,2014-02-02 00:14:00,
2014-02-01 18:15:00,22.6,14.7,29.96,North,0,9.8,13.0,71,0.00,,,0.00,meteobridge,2014-02-02 00:15:00,
2014-02-01 18:16:00,22.6,14.7,29.96,NW,315,9.2,13.0,71,0.00,,,0.00,meteobridge,2014-02-02 00:16:00,
2014-02-01 18:17:00,22.6,14.7,29.96,North,0,9.8,9.8,71,0.00,,,0.00,meteobridge,2014-02-02 00:17:00,
2014-02-01 18:19:00,22.6,14.7,29.96,North,0,7.6,9.8,71,0.00,,,0.00,meteobridge,2014-02-02 00:19:00,
2014-02-01 18:21:00,22.6,14.7,29.96,North,0,11.4,11.4,71,0.00,,,0.00,meteobridge,2014-02-02 00:21:00,
2014-02-01 18:24:00,22.6,14.4,29.96,NW,315,10.7,11.4,70,0.00,,,0.00,meteobridge,2014-02-02 00:24:00,
2014-02-01 18:25:00,22.6,14.4,29.96,NW,315,10.7,11.4,70,0.00,,,0.00,meteobridge,2014-02-02 00:25:00,
2014-02-01 18:26:00,22.6,14.4,29.96,North,0,10.7,10.7,70,0.00,,,0.00,meteobridge,2014-02-02 00:26:00,
2014-02-01 18:27:00,22.6,14.4,29.96,WNW,293,11.4,11.4,70,0.00,,,0.00,meteobridge,2014-02-02 00:27:00,
2014-02-01 18:28:00,22.6,14.4,29.96,WNW,293,11.4,11.4,70,0.00,,,0.00,meteobridge,2014-02-02 00:28:00,
2014-02-01 18:29:00,22.6,14.4,29.97,NW,315,9.8,9.8,70,0.00,,,0.00,meteobridge,2014-02-02 00:29:00,
2014-02-01 18:31:00,22.6,14.4,29.96,NW,315,9.8,10.7,70,0.00,,,0.00,meteobridge,2014-02-02 00:31:00,
2014-02-01 18:32:00,22.6,14.4,29.97,WNW,293,9.8,10.7,70,0.00,,,0.00,meteobridge,2014-02-02 00:32:00,
2014-02-01 18:34:00,22.5,14.2,29.97,North,0,9.2,9.8,70,0.00,,,0.00,meteobridge,2014-02-02 00:34:00,
2014-02-01 18:35:00,22.5,14.2,29.97,NW,315,9.8,9.8,70,0.00,,,0.00,meteobridge,2014-02-02 00:35:00,
2014-02-01 18:36:00,22.5,14.2,29.97,NW,315,9.8,9.8,70,0.00,,,0.00,meteobridge,2014-02-02 00:36:00,
2014-02-01 18:37:00,22.6,14.4,29.97,North,0,9.8,9.8,70,0.00,,,0.00,meteobridge,2014-02-02 00:37:00,
2014-02-01 18:39:00,22.5,14.2,29.97,North,0,9.2,10.7,70,0.00,,,0.00,meteobridge,2014-02-02 00:39:00,
2014-02-01 18:41:00,22.5,14.2,29.97,NW,315,9.2,9.2,70,0.00,,,0.00,meteobridge,2014-02-02 00:41:00,
2014-02-01 18:42:00,22.5,14.2,29.97,NW,315,9.2,9.2,70,0.00,,,0.00,meteobridge,2014-02-02 00:42:00,
2014-02-01 18:43:00,22.5,14.2,29.98,NW,315,8.3,9.2,70,0.00,,,0.00,meteobridge,2014-02-02 00:43:00,
2014-02-01 18:44:00,22.3,14.0,29.97,NW,315,8.3,9.2,70,0.00,,,0.00,meteobridge,2014-02-02 00:44:00,
2014-02-01 18:45:00,22.3,14.0,29.97,NW,315,7.6,15.2,70,0.00,,,0.00,meteobridge,2014-02-02 00:45:00,
2014-02-01 18:46:00,22.3,14.0,29.98,NW,315,10.7,15.2,70,0.00,,,0.00,meteobridge,2014-02-02 00:46:00,
2014-02-01 18:48:00,22.3,14.4,29.98,NW,315,6.0,10.7,71,0.00,,,0.00,meteobridge,2014-02-02 00:48:00,
2014-02-01 18:51:00,22.3,14.4,29.98,NW,315,8.3,8.3,71,0.00,,,0.00,meteobridge,2014-02-02 00:51:00,
2014-02-01 18:52:00,22.3,14.4,29.98,NW,315,7.6,8.3,71,0.00,,,0.00,meteobridge,2014-02-02 00:52:00,
2014-02-01 18:53:00,22.3,14.4,29.98,NW,315,6.9,8.3,71,0.00,,,0.00,meteobridge,2014-02-02 00:53:00,
2014-02-01 18:54:00,22.5,14.5,29.98,NW,315,9.2,9.2,71,0.00,,,0.00,meteobridge,2014-02-02 00:54:00,
2014-02-01 18:56:00,22.5,14.5,29.99,NW,315,7.6,7.6,71,0.00,,,0.00,meteobridge,2014-02-02 00:56:00,
2014-02-01 18:58:00,22.5,14.5,29.99,NW,315,9.8,10.7,71,0.00,,,0.00,meteobridge,2014-02-02 00:58:00,
2014-02-01 18:59:00,22.5,14.5,29.99,NW,315,9.8,10.7,71,0.00,,,0.00,meteobridge,2014-02-02 00:59:00,
2014-02-01 19:00:00,22.6,14.7,29.99,NW,315,9.8,10.7,71,0.00,,,0.00,meteobridge,2014-02-02 01:00:00,
2014-02-01 19:02:00,22.5,14.5,29.99,NW,315,11.4,11.4,71,0.00,,,0.00,meteobridge,2014-02-02 01:02:00,
2014-02-01 19:04:00,22.6,14.7,29.99,NW,315,9.2,11.4,71,0.00,,,0.00,meteobridge,2014-02-02 01:04:00,
2014-02-01 19:05:00,22.5,14.5,29.98,NW,315,9.2,9.8,71,0.00,,,0.00,meteobridge,2014-02-02 01:05:00,
2014-02-01 19:06:00,22.5,14.5,29.98,NW,315,9.2,9.2,71,0.00,,,0.00,meteobridge,2014-02-02 01:06:00,
2014-02-01 19:08:00,22.6,14.7,29.98,NW,315,8.3,9.8,71,0.00,,,0.00,meteobridge,2014-02-02 01:08:00,
2014-02-01 19:09:00,22.6,14.7,29.99,West,270,8.3,9.8,71,0.00,,,0.00,meteobridge,2014-02-02 01:09:00,
2014-02-01 19:10:00,22.6,14.7,29.98,NW,315,9.2,9.8,71,0.00,,,0.00,meteobridge,2014-02-02 01:10:00,
2014-02-01 19:11:00,22.6,14.7,29.98,NW,315,9.2,9.8,71,0.00,,,0.00,meteobridge,2014-02-02 01:11:00,
2014-02-01 19:12:00,22.6,14.7,29.99,North,0,10.7,10.7,71,0.00,,,0.00,meteobridge,2014-02-02 01:12:00,
2014-02-01 19:14:00,22.6,14.7,29.99,NW,315,11.4,11.4,71,0.00,,,0.00,meteobridge,2014-02-02 01:14:00,
2014-02-01 19:16:00,22.6,14.7,29.99,NW,315,12.1,12.1,71,0.00,,,0.00,meteobridge,2014-02-02 01:16:00,
2014-02-01 19:17:00,22.6,14.7,29.99,NW,315,12.1,12.1,71,0.00,,,0.00,meteobridge,2014-02-02 01:17:00,
2014-02-01 19:18:00,22.6,14.7,29.99,NW,315,12.1,12.1,71,0.00,,,0.00,meteobridge,2014-02-02 01:18:00,
2014-02-01 19:21:00,22.6,14.7,29.99,NW,315,12.1,12.1,71,0.00,,,0.00,meteobridge,2014-02-02 01:21:00,
2014-02-01 19:24:00,22.6,14.4,29.99,NW,315,10.7,10.7,70,0.00,,,0.00,meteobridge,2014-02-02 01:24:00,
2014-02-01 19:27:00,22.6,14.4,29.99,NW,315,9.2,11.4,70,0.00,,,0.00,meteobridge,2014-02-02 01:27:00,
2014-02-01 19:29:00,22.6,14.4,29.99,North,0,9.8,10.7,70,0.00,,,0.00,meteobridge,2014-02-02 01:29:00,
2014-02-01 19:30:00,22.6,14.4,29.99,NW,315,13.0,13.0,70,0.00,,,0.00,meteobridge,2014-02-02 01:30:00,
2014-02-01 19:32:00,22.6,14.4,29.99,NW,315,11.4,11.4,70,0.00,,,0.00,meteobridge,2014-02-02 01:32:00,
2014-02-01 19:34:00,22.6,14.4,30.00,NW,315,11.4,13.0,70,0.00,,,0.00,meteobridge,2014-02-02 01:34:00,
2014-02-01 19:35:00,22.6,14.4,30.00,North,0,10.7,13.0,70,0.00,,,0.00,meteobridge,2014-02-02 01:35:00,
2014-02-01 19:36:00,22.6,14.4,30.00,NW,315,9.8,11.4,70,0.00,,,0.00,meteobridge,2014-02-02 01:36:00,
2014-02-01 19:38:00,22.6,14.4,30.00,NW,315,11.4,12.1,70,0.00,,,0.00,meteobridge,2014-02-02 01:38:00,
2014-02-01 19:40:00,22.6,14.4,30.00,North,0,9.8,13.0,70,0.00,,,0.00,meteobridge,2014-02-02 01:40:00,
2014-02-01 19:41:00,22.6,14.4,30.00,NW,315,11.4,13.0,70,0.00,,,0.00,meteobridge,2014-02-02 01:41:00,
2014-02-01 19:43:00,22.6,14.4,30.00,North,0,12.1,12.1,70,0.00,,,0.00,meteobridge,2014-02-02 01:43:00,
2014-02-01 19:44:00,22.6,14.4,30.00,NW,315,10.7,12.1,70,0.00,,,0.00,meteobridge,2014-02-02 01:44:00,
2014-02-01 19:47:00,22.6,14.0,30.01,NW,315,11.4,15.2,69,0.00,,,0.00,meteobridge,2014-02-02 01:47:00,
2014-02-01 19:48:00,22.6,14.0,30.01,West,270,12.1,12.1,69,0.00,,,0.00,meteobridge,2014-02-02 01:48:00,
2014-02-01 19:49:00,22.6,14.0,30.01,North,0,12.1,12.1,69,0.00,,,0.00,meteobridge,2014-02-02 01:49:00,
2014-02-01 19:50:00,22.6,14.0,30.01,North,0,12.1,12.1,69,0.00,,,0.00,meteobridge,2014-02-02 01:50:00,
2014-02-01 19:51:00,22.6,14.0,30.01,NW,315,11.4,12.1,69,0.00,,,0.00,meteobridge,2014-02-02 01:51:00,
2014-02-01 19:52:00,22.5,13.8,30.01,NW,315,15.2,15.2,69,0.00,,,0.00,meteobridge,2014-02-02 01:52:00,
2014-02-01 19:54:00,22.5,13.8,30.01,NW,315,11.4,15.2,69,0.00,,,0.00,meteobridge,2014-02-02 01:54:00,
2014-02-01 19:55:00,22.5,13.8,30.01,NW,315,13.0,13.0,69,0.00,,,0.00,meteobridge,2014-02-02 01:55:00,
2014-02-01 19:57:00,22.5,13.8,30.01,North,0,16.8,16.8,69,0.00,,,0.00,meteobridge,2014-02-02 01:57:00,
2014-02-01 19:59:00,22.5,13.8,30.01,North,0,8.3,14.5,69,0.00,,,0.00,meteobridge,2014-02-02 01:59:00,
2014-02-01 20:00:00,22.5,13.8,30.01,West,270,12.1,13.0,69,0.00,,,0.00,meteobridge,2014-02-02 02:00:00,
2014-02-01 20:03:00,22.5,13.8,30.01,West,270,12.1,12.1,69,0.00,,,0.00,meteobridge,2014-02-02 02:03:00,
2014-02-01 20:05:00,22.5,13.8,30.01,West,270,12.1,12.1,69,0.00,,,0.00,meteobridge,2014-02-02 02:05:00,
2014-02-01 20:06:00,22.5,13.8,30.01,West,270,12.1,12.1,69,0.00,,,0.00,meteobridge,2014-02-02 02:06:00,
2014-02-01 20:07:00,22.5,13.8,30.01,West,270,12.1,12.1,69,0.00,,,0.00,meteobridge,2014-02-02 02:07:00,
2014-02-01 20:10:00,22.1,13.1,30.01,NW,315,13.6,13.6,68,0.00,,,0.00,meteobridge,2014-02-02 02:10:00,
2014-02-01 20:11:00,21.9,12.9,30.01,North,0,8.3,14.5,68,0.00,,,0.00,meteobridge,2014-02-02 02:11:00,
2014-02-01 20:13:00,21.9,12.9,30.01,North,0,9.8,9.8,68,0.00,,,0.00,meteobridge,2014-02-02 02:13:00,
2014-02-01 20:16:00,21.7,12.7,30.01,North,0,11.4,11.4,68,0.00,,,0.00,meteobridge,2014-02-02 02:16:00,
2014-02-01 20:17:00,21.7,12.7,30.01,NW,315,9.8,11.4,68,0.00,,,0.00,meteobridge,2014-02-02 02:17:00,
2014-02-01 20:19:00,21.6,12.6,30.01,North,0,7.6,7.6,68,0.00,,,0.00,meteobridge,2014-02-02 02:19:00,
2014-02-01 20:20:00,21.6,12.6,30.02,WNW,293,8.3,8.3,68,0.00,,,0.00,meteobridge,2014-02-02 02:20:00,
2014-02-01 20:22:00,21.4,12.4,30.02,NW,315,9.2,9.2,68,0.00,,,0.00,meteobridge,2014-02-02 02:22:00,
2014-02-01 20:23:00,21.4,12.4,30.01,WNW,293,8.3,9.2,68,0.00,,,0.00,meteobridge,2014-02-02 02:23:00,
2014-02-01 20:25:00,21.4,12.4,30.02,North,0,6.0,8.3,68,0.00,,,0.00,meteobridge,2014-02-02 02:25:00,
2014-02-01 20:27:00,21.2,12.4,30.02,North,0,6.9,8.3,68,0.00,,,0.00,meteobridge,2014-02-02 02:27:00,
2014-02-01 20:29:00,21.2,12.4,30.02,North,0,10.7,10.7,68,0.00,,,0.00,meteobridge,2014-02-02 02:29:00,
2014-02-01 20:30:00,21.0,12.4,30.02,North,0,6.9,10.7,69,0.00,,,0.00,meteobridge,2014-02-02 02:30:00,
2014-02-01 20:31:00,21.0,12.4,30.02,North,0,8.3,10.7,69,0.00,,,0.00,meteobridge,2014-02-02 02:31:00,
2014-02-01 20:34:00,20.8,12.2,30.02,North,0,9.8,9.8,69,0.00,,,0.00,meteobridge,2014-02-02 02:34:00,
2014-02-01 20:35:00,20.8,12.2,30.02,North,0,9.2,9.8,69,0.00,,,0.00,meteobridge,2014-02-02 02:35:00,
2014-02-01 20:36:00,20.8,12.2,30.02,North,0,8.3,9.2,69,0.00,,,0.00,meteobridge,2014-02-02 02:36:00,
2014-02-01 20:37:00,20.8,12.2,30.02,North,0,9.2,9.2,69,0.00,,,0.00,meteobridge,2014-02-02 02:37:00,
2014-02-01 20:38:00,20.8,12.2,30.02,NW,315,10.7,10.7,69,0.00,,,0.00,meteobridge,2014-02-02 02:38:00,
2014-02-01 20:39:00,20.7,12.0,30.02,North,0,7.6,10.7,69,0.00,,,0.00,meteobridge,2014-02-02 02:39:00,
2014-02-01 20:42:00,20.7,12.0,30.02,North,0,7.6,8.3,69,0.00,,,0.00,meteobridge,2014-02-02 02:42:00,
2014-02-01 20:44:00,20.7,12.0,30.02,North,0,9.8,9.8,69,0.00,,,0.00,meteobridge,2014-02-02 02:44:00,
2014-02-01 20:45:00,20.7,12.0,30.02,NW,315,10.7,10.7,69,0.00,,,0.00,meteobridge,2014-02-02 02:45:00,
2014-02-01 20:47:00,20.7,12.0,30.02,North,0,9.2,10.7,69,0.00,,,0.00,meteobridge,2014-02-02 02:47:00,
2014-02-01 20:49:00,20.7,12.0,30.02,NW,315,8.3,13.6,69,0.00,,,0.00,meteobridge,2014-02-02 02:49:00,
2014-02-01 20:50:00,20.7,12.0,30.02,WNW,293,8.3,13.6,69,0.00,,,0.00,meteobridge,2014-02-02 02:50:00,
2014-02-01 20:53:00,20.8,12.2,30.02,NW,315,12.1,12.1,69,0.00,,,0.00,meteobridge,2014-02-02 02:53:00,
2014-02-01 20:54:00,20.8,12.2,30.03,NW,315,10.7,12.1,69,0.00,,,0.00,meteobridge,2014-02-02 02:54:00,
2014-02-01 20:55:00,20.8,12.2,30.03,North,0,11.4,12.1,69,0.00,,,0.00,meteobridge,2014-02-02 02:55:00,
2014-02-01 20:58:00,20.8,12.2,30.02,NW,315,13.0,13.0,69,0.00,,,0.00,meteobridge,2014-02-02 02:58:00,
2014-02-01 21:00:00,20.8,12.2,30.02,NW,315,9.8,11.4,69,0.00,,,0.00,meteobridge,2014-02-02 03:00:00,
2014-02-01 21:01:00,20.8,12.2,30.02,North,0,10.7,11.4,69,0.00,,,0.00,meteobridge,2014-02-02 03:01:00,
2014-02-01 21:04:00,20.8,12.2,30.02,WNW,293,8.3,13.6,69,0.00,,,0.00,meteobridge,2014-02-02 03:04:00,
2014-02-01 21:06:00,20.8,12.2,30.03,WNW,293,13.0,13.0,69,0.00,,,0.00,meteobridge,2014-02-02 03:06:00,
2014-02-01 21:07:00,20.8,12.2,30.03,WNW,293,13.0,13.0,69,0.00,,,0.00,meteobridge,2014-02-02 03:07:00,
2014-02-01 21:08:00,20.8,12.2,30.03,North,0,11.4,13.0,69,0.00,,,0.00,meteobridge,2014-02-02 03:08:00,
2014-02-01 21:09:00,20.8,12.2,30.03,North,0,9.2,13.6,69,0.00,,,0.00,meteobridge,2014-02-02 03:09:00,
2014-02-01 21:12:00,20.8,12.2,30.03,North,0,12.1,12.1,69,0.00,,,0.00,meteobridge,2014-02-02 03:12:00,
2014-02-01 21:14:00,20.8,12.2,30.03,WNW,293,8.3,10.7,69,0.00,,,0.00,meteobridge,2014-02-02 03:14:00,
2014-02-01 21:15:00,20.8,12.2,30.03,WNW,293,8.3,10.7,69,0.00,,,0.00,meteobridge,2014-02-02 03:15:00,
2014-02-01 21:16:00,20.8,12.2,30.03,North,0,11.4,11.4,69,0.00,,,0.00,meteobridge,2014-02-02 03:16:00,
2014-02-01 21:17:00,20.8,12.2,30.04,North,0,8.3,11.4,69,0.00,,,0.00,meteobridge,2014-02-02 03:17:00,
2014-02-01 21:18:00,20.7,12.0,30.04,North,0,9.2,9.2,69,0.00,,,0.00,meteobridge,2014-02-02 03:18:00,
2014-02-01 21:20:00,20.7,12.0,30.04,North,0,10.7,13.0,69,0.00,,,0.00,meteobridge,2014-02-02 03:20:00,
2014-02-01 21:21:00,20.7,12.0,30.04,NW,315,9.8,10.7,69,0.00,,,0.00,meteobridge,2014-02-02 03:21:00,
2014-02-01 21:22:00,20.7,12.0,30.04,North,0,10.7,10.7,69,0.00,,,0.00,meteobridge,2014-02-02 03:22:00,
2014-02-01 21:23:00,20.7,12.0,30.04,North,0,9.8,10.7,69,0.00,,,0.00,meteobridge,2014-02-02 03:23:00,
2014-02-01 21:24:00,20.7,12.0,30.04,NW,315,9.8,10.7,69,0.00,,,0.00,meteobridge,2014-02-02 03:24:00,
2014-02-01 21:25:00,20.7,12.0,30.04,North,0,9.8,9.8,69,0.00,,,0.00,meteobridge,2014-02-02 03:25:00,
2014-02-01 21:27:00,20.7,12.0,30.03,North,0,9.8,14.5,69,0.00,,,0.00,meteobridge,2014-02-02 03:27:00,
2014-02-01 21:29:00,20.7,12.0,30.04,NW,315,13.6,15.2,69,0.00,,,0.00,meteobridge,2014-02-02 03:29:00,
2014-02-01 21:30:00,20.7,12.0,30.04,North,0,9.8,13.6,69,0.00,,,0.00,meteobridge,2014-02-02 03:30:00,
2014-02-01 21:32:00,20.7,12.0,30.03,North,0,9.8,9.8,69,0.00,,,0.00,meteobridge,2014-02-02 03:32:00,
2014-02-01 21:33:00,20.7,12.0,30.03,North,0,10.7,10.7,69,0.00,,,0.00,meteobridge,2014-02-02 03:33:00,
2014-02-01 21:35:00,20.5,12.0,30.04,North,0,9.2,10.7,69,0.00,,,0.00,meteobridge,2014-02-02 03:35:00,
2014-02-01 21:38:00,20.5,12.0,30.03,North,0,9.2,11.4,69,0.00,,,0.00,meteobridge,2014-02-02 03:38:00,
2014-02-01 21:39:00,20.5,12.0,30.03,North,0,12.1,12.1,69,0.00,,,0.00,meteobridge,2014-02-02 03:39:00,
2014-02-01 21:40:00,20.5,12.0,30.03,NW,315,12.1,12.1,69,0.00,,,0.00,meteobridge,2014-02-02 03:40:00,
2014-02-01 21:42:00,20.5,12.0,30.04,North,0,10.7,13.0,69,0.00,,,0.00,meteobridge,2014-02-02 03:42:00,
2014-02-01 21:44:00,20.5,12.0,30.03,NW,315,8.3,10.7,69,0.00,,,0.00,meteobridge,2014-02-02 03:44:00,
2014-02-01 21:45:00,20.5,12.0,30.03,WNW,293,9.8,9.8,69,0.00,,,0.00,meteobridge,2014-02-02 03:45:00,
2014-02-01 21:47:00,20.3,11.8,30.03,NE,45,9.2,9.2,69,0.00,,,0.00,meteobridge,2014-02-02 03:47:00,
2014-02-01 21:49:00,20.3,11.8,30.04,North,0,7.6,9.2,69,0.00,,,0.00,meteobridge,2014-02-02 03:49:00,
2014-02-01 21:51:00,20.3,11.8,30.04,NW,315,9.8,9.8,69,0.00,,,0.00,meteobridge,2014-02-02 03:51:00,
2014-02-01 21:52:00,20.3,11.8,30.04,NW,315,11.4,11.4,69,0.00,,,0.00,meteobridge,2014-02-02 03:52:00,
2014-02-01 21:53:00,20.3,11.8,30.04,North,0,6.9,11.4,69,0.00,,,0.00,meteobridge,2014-02-02 03:53:00,
2014-02-01 21:54:00,20.3,11.8,30.04,NW,315,9.8,9.8,69,0.00,,,0.00,meteobridge,2014-02-02 03:54:00,
2014-02-01 21:55:00,20.3,11.8,30.04,NW,315,7.6,9.8,69,0.00,,,0.00,meteobridge,2014-02-02 03:55:00,
2014-02-01 21:56:00,20.3,11.8,30.03,North,0,9.2,9.8,69,0.00,,,0.00,meteobridge,2014-02-02 03:56:00,
2014-02-01 21:57:00,20.3,11.8,30.04,North,0,9.8,9.8,69,0.00,,,0.00,meteobridge,2014-02-02 03:57:00,
2014-02-01 21:58:00,20.3,11.8,30.04,NW,315,10.7,10.7,69,0.00,,,0.00,meteobridge,2014-02-02 03:58:00,
2014-02-01 22:01:00,20.3,11.8,30.04,NW,315,10.7,10.7,69,0.00,,,0.00,meteobridge,2014-02-02 04:01:00,
2014-02-01 22:02:00,20.3,11.8,30.04,NW,315,10.7,10.7,69,0.00,,,0.00,meteobridge,2014-02-02 04:02:00,
2014-02-01 22:05:00,20.3,11.8,30.04,NW,315,10.7,10.7,69,0.00,,,0.00,meteobridge,2014-02-02 04:05:00,
2014-02-01 22:07:00,20.3,11.8,30.04,NW,315,10.7,10.7,69,0.00,,,0.00,meteobridge,2014-02-02 04:07:00,
2014-02-01 22:08:00,20.3,11.8,30.05,NE,45,11.4,11.4,69,0.00,,,0.00,meteobridge,2014-02-02 04:08:00,
2014-02-01 22:10:00,20.1,11.7,30.05,NW,315,8.3,10.7,69,0.00,,,0.00,meteobridge,2014-02-02 04:10:00,
2014-02-01 22:11:00,20.1,11.7,30.04,North,0,7.6,10.7,69,0.00,,,0.00,meteobridge,2014-02-02 04:11:00,
2014-02-01 22:12:00,20.1,11.7,30.05,North,0,8.3,8.3,69,0.00,,,0.00,meteobridge,2014-02-02 04:12:00,
2014-02-01 22:13:00,20.1,11.7,30.05,NW,315,8.3,8.3,69,0.00,,,0.00,meteobridge,2014-02-02 04:13:00,
2014-02-01 22:14:00,20.1,11.7,30.05,North,0,9.2,9.2,69,0.00,,,0.00,meteobridge,2014-02-02 04:14:00,
2014-02-01 22:16:00,20.1,11.7,30.05,North,0,7.6,7.6,69,0.00,,,0.00,meteobridge,2014-02-02 04:16:00,
2014-02-01 22:17:00,20.1,11.7,30.05,North,0,6.0,7.6,69,0.00,,,0.00,meteobridge,2014-02-02 04:17:00,
2014-02-01 22:19:00,20.1,11.7,30.05,North,0,7.6,7.6,69,0.00,,,0.00,meteobridge,2014-02-02 04:19:00,
2014-02-01 22:20:00,19.9,11.5,30.05,North,0,8.3,8.3,69,0.00,,,0.00,meteobridge,2014-02-02 04:20:00,
2014-02-01 22:22:00,19.9,11.5,30.05,North,0,6.0,9.2,69,0.00,,,0.00,meteobridge,2014-02-02 04:22:00,
2014-02-01 22:23:00,19.9,11.5,30.06,NW,315,5.4,9.2,69,0.00,,,0.00,meteobridge,2014-02-02 04:23:00,
2014-02-01 22:24:00,19.9,11.5,30.06,NW,315,7.6,7.6,69,0.00,,,0.00,meteobridge,2014-02-02 04:24:00,
2014-02-01 22:27:00,19.9,11.5,30.06,NW,315,5.4,8.3,69,0.00,,,0.00,meteobridge,2014-02-02 04:27:00,
2014-02-01 22:28:00,19.9,11.5,30.06,NW,315,6.9,7.6,69,0.00,,,0.00,meteobridge,2014-02-02 04:28:00,
2014-02-01 22:29:00,19.9,11.5,30.06,NW,315,6.0,6.9,69,0.00,,,0.00,meteobridge,2014-02-02 04:29:00,
2014-02-01 22:34:00,19.9,11.7,30.06,NW,315,9.8,9.8,70,0.00,,,0.00,meteobridge,2014-02-02 04:34:00,
2014-02-01 22:35:00,19.9,11.7,30.06,NW,315,9.8,9.8,70,0.00,,,0.00,meteobridge,2014-02-02 04:35:00,
2014-02-01 22:36:00,20.1,11.8,30.06,NW,315,9.8,10.7,70,0.00,,,0.00,meteobridge,2014-02-02 04:36:00,
2014-02-01 22:40:00,20.1,11.8,30.06,NW,315,9.8,9.8,70,0.00,,,0.00,meteobridge,2014-02-02 04:40:00,
2014-02-01 22:41:00,20.1,11.8,30.07,NW,315,12.1,12.1,70,0.00,,,0.00,meteobridge,2014-02-02 04:41:00,
2014-02-01 22:42:00,20.1,11.8,30.07,NW,315,10.7,12.1,70,0.00,,,0.00,meteobridge,2014-02-02 04:42:00,
2014-02-01 22:43:00,20.1,11.8,30.07,NW,315,11.4,12.1,70,0.00,,,0.00,meteobridge,2014-02-02 04:43:00,
2014-02-01 22:46:00,20.3,12.0,30.07,NW,315,11.4,11.4,70,0.00,,,0.00,meteobridge,2014-02-02 04:46:00,
2014-02-01 22:47:00,20.3,12.0,30.07,WNW,293,12.1,12.1,70,0.00,,,0.00,meteobridge,2014-02-02 04:47:00,
2014-02-01 22:48:00,20.3,12.0,30.07,North,0,13.0,13.0,70,0.00,,,0.00,meteobridge,2014-02-02 04:48:00,
2014-02-01 22:51:00,20.5,12.2,29.77,South,180,25.9,25.9,70,0.00,,,0.00,meteobridge,2014-02-02 04:51:00,
2014-02-01 22:52:00,20.5,12.2,30.06,NW,315,11.4,25.9,70,0.00,,,0.00,meteobridge,2014-02-02 04:52:00,
2014-02-01 22:53:00,20.5,12.2,30.06,NW,315,10.7,11.4,70,0.00,,,0.00,meteobridge,2014-02-02 04:53:00,
2014-02-01 22:54:00,20.5,12.2,30.06,NW,315,11.4,11.4,70,0.00,,,0.00,meteobridge,2014-02-02 04:54:00,
2014-02-01 22:56:00,20.5,12.2,30.06,North,0,21.3,21.3,70,0.00,,,0.00,meteobridge,2014-02-02 04:56:00,
2014-02-01 22:58:00,20.5,12.2,30.06,NW,315,15.2,21.3,70,0.00,,,0.00,meteobridge,2014-02-02 04:58:00,
2014-02-01 22:59:00,20.5,12.2,30.06,NW,315,17.4,17.4,70,0.00,,,0.00,meteobridge,2014-02-02 04:59:00,
2014-02-01 23:01:00,20.5,12.2,30.07,North,0,14.5,17.4,70,0.00,,,0.00,meteobridge,2014-02-02 05:01:00,
2014-02-01 23:02:00,20.5,12.2,30.07,NW,315,14.5,15.2,70,0.00,,,0.00,meteobridge,2014-02-02 05:02:00,
2014-02-01 23:03:00,20.5,12.2,30.07,NW,315,13.6,15.2,70,0.00,,,0.00,meteobridge,2014-02-02 05:03:00,
2014-02-01 23:05:00,20.3,12.0,30.07,North,0,16.8,16.8,70,0.00,,,0.00,meteobridge,2014-02-02 05:05:00,
2014-02-01 23:06:00,20.3,12.0,30.07,NW,315,15.2,16.8,70,0.00,,,0.00,meteobridge,2014-02-02 05:06:00,
2014-02-01 23:08:00,20.3,12.0,30.07,NW,315,16.8,16.8,70,0.00,,,0.00,meteobridge,2014-02-02 05:08:00,
2014-02-01 23:09:00,20.3,12.0,30.07,WNW,293,15.2,16.8,70,0.00,,,0.00,meteobridge,2014-02-02 05:09:00,
2014-02-01 23:11:00,20.1,11.7,30.07,NW,315,18.3,18.3,69,0.00,,,0.00,meteobridge,2014-02-02 05:11:00,
2014-02-01 23:12:00,20.1,11.7,30.07,WNW,293,20.6,20.6,69,0.00,,,0.00,meteobridge,2014-02-02 05:12:00,
2014-02-01 23:13:00,20.1,11.7,30.07,NW,315,21.3,21.3,69,0.00,,,0.00,meteobridge,2014-02-02 05:13:00,
2014-02-01 23:14:00,19.9,11.5,30.07,North,0,17.4,21.3,69,0.00,,,0.00,meteobridge,2014-02-02 05:14:00,
2014-02-01 23:17:00,19.9,11.5,30.07,NW,315,15.2,16.8,69,0.00,,,0.00,meteobridge,2014-02-02 05:17:00,
2014-02-01 23:19:00,19.8,11.3,30.07,NW,315,16.8,19.7,69,0.00,,,0.00,meteobridge,2014-02-02 05:19:00,
2014-02-01 23:20:00,19.8,11.3,30.07,NW,315,16.8,19.7,69,0.00,,,0.00,meteobridge,2014-02-02 05:20:00,
2014-02-01 23:23:00,19.8,11.3,30.07,NW,315,13.0,14.5,69,0.00,,,0.00,meteobridge,2014-02-02 05:23:00,
2014-02-01 23:24:00,19.8,11.3,30.07,NW,315,17.4,17.4,69,0.00,,,0.00,meteobridge,2014-02-02 05:24:00,
2014-02-01 23:25:00,19.6,11.1,30.07,NW,315,15.2,17.4,69,0.00,,,0.00,meteobridge,2014-02-02 05:25:00,
2014-02-01 23:27:00,19.6,11.1,30.07,NW,315,18.3,18.3,69,0.00,,,0.00,meteobridge,2014-02-02 05:27:00,
2014-02-01 23:29:00,19.6,11.1,30.07,NW,315,17.4,17.4,69,0.00,,,0.00,meteobridge,2014-02-02 05:29:00,
2014-02-01 23:31:00,19.6,11.1,30.07,NW,315,13.6,17.4,69,0.00,,,0.00,meteobridge,2014-02-02 05:31:00,
2014-02-01 23:33:00,19.4,10.9,30.07,NW,315,16.8,16.8,69,0.00,,,0.00,meteobridge,2014-02-02 05:33:00,
2014-02-01 23:35:00,19.4,10.9,30.07,WNW,293,13.6,16.8,69,0.00,,,0.00,meteobridge,2014-02-02 05:35:00,
2014-02-01 23:36:00,19.4,10.9,30.07,NW,315,13.0,14.5,69,0.00,,,0.00,meteobridge,2014-02-02 05:36:00,
2014-02-01 23:37:00,19.4,10.9,30.08,NW,315,18.3,18.3,69,0.00,,,0.00,meteobridge,2014-02-02 05:37:00,
2014-02-01 23:40:00,19.2,9.3,30.08,NW,315,13.6,15.9,65,0.00,,,0.00,meteobridge,2014-02-02 05:40:00,
2014-02-01 23:41:00,19.2,9.3,30.08,NW,315,13.6,14.5,65,0.00,,,0.00,meteobridge,2014-02-02 05:41:00,
2014-02-01 23:42:00,19.2,9.3,30.08,NW,315,13.6,14.5,65,0.00,,,0.00,meteobridge,2014-02-02 05:42:00,
2014-02-01 23:43:00,19.0,9.1,30.08,NW,315,13.0,14.5,65,0.00,,,0.00,meteobridge,2014-02-02 05:43:00,
2014-02-01 23:45:00,19.0,9.1,30.08,NW,315,15.2,15.2,65,0.00,,,0.00,meteobridge,2014-02-02 05:45:00,
2014-02-01 23:46:00,19.0,9.1,30.08,North,0,15.9,15.9,65,0.00,,,0.00,meteobridge,2014-02-02 05:46:00,
2014-02-01 23:47:00,19.0,9.1,30.08,North,0,15.9,15.9,65,0.00,,,0.00,meteobridge,2014-02-02 05:47:00,
2014-02-01 23:48:00,19.0,9.0,30.08,NW,315,13.6,15.9,64,0.00,,,0.00,meteobridge,2014-02-02 05:48:00,
2014-02-01 23:53:00,18.9,8.8,30.08,NW,315,16.8,16.8,64,0.00,,,0.00,meteobridge,2014-02-02 05:53:00,
2014-02-01 23:55:00,18.7,8.6,30.08,North,0,9.2,16.8,64,0.00,,,0.00,meteobridge,2014-02-02 05:55:00,
2014-02-01 23:56:00,18.7,8.6,30.08,North,0,10.7,11.4,64,0.00,,,0.00,meteobridge,2014-02-02 05:56:00,
2014-02-01 23:58:00,18.7,8.2,30.08,North,0,9.8,10.7,63,0.00,,,0.00,meteobridge,2014-02-02 05:58:00,
2014-02-01 23:59:00,18.5,8.1,30.08,NW,315,13.0,13.0,63,0.00,,,0.00,meteobridge,2014-02-02 05:59:00,